ECMWFFLT1_500_spd_000.txt.gz
Wind_Speed
24 25 24 25 25 25 25 24 24 23 23 24 25 25 25 26 25 25 26 26 27 28 28 28 27 26 25 26 26 27 27 27 27 28 28 29 31 32 34 35 36 37 37 37 38 39 40 42 43 44 45 45 44 42 40 38 37 37 36 35 35 34 34
26 27 27 27 27 27 27 27 26 26 25 25 26 27 27 28 27 27 27 27 28 29 29 29 29 28 27 27 28 29 29 29 29 29 30 31 32 33 35 36 37 37 37 38 38 39 40 42 43 43 44 44 43 41 39 37 37 37 35 34 34 34 34
28 29 30 29 28 28 28 28 28 27 26 26 27 28 29 29 29 29 29 29 29 29 30 30 30 30 30 30 30 31 31 31 31 31 31 32 33 34 35 36 37 37 38 38 39 40 41 42 43 42 42 42 41 39 38 38 38 37 35 34 34 34 34
27 29 30 30 29 30 30 30 29 28 27 27 28 29 30 30 30 30 30 29 30 30 30 30 31 32 32 32 32 32 33 33 33 32 32 33 34 35 36 37 38 38 38 39 40 40 41 42 42 41 40 40 39 38 37 38 38 38 37 36 36 36 36
24 27 29 29 30 31 31 30 29 29 28 28 29 30 30 31 31 31 30 30 31 31 31 31 32 33 34 34 34 34 34 35 35 34 34 34 35 36 37 38 38 38 39 39 40 41 41 42 42 40 39 38 37 37 37 37 38 38 37 37 38 38 37
22 25 27 28 30 31 31 31 30 29 29 29 30 30 31 32 32 31 31 31 32 32 32 31 32 34 35 35 35 35 35 36 36 35 35 35 36 37 38 38 39 39 39 39 40 41 42 42 42 39 37 37 37 36 37 37 38 38 38 39 40 40 39
21 23 25 26 28 29 30 31 30 30 30 30 30 31 31 32 33 32 31 31 32 32 32 32 33 35 36 36 36 36 36 37 36 36 36 36 37 37 38 39 39 39 40 40 41 42 43 42 41 39 37 37 37 37 37 38 38 39 39 40 42 42 42
21 22 24 25 26 28 30 30 30 30 30 30 31 31 32 33 33 32 31 32 33 33 33 33 33 35 36 37 37 37 37 37 37 36 36 36 37 38 39 40 40 40 40 40 41 42 43 43 42 39 38 37 37 37 38 39 39 40 41 41 42 43 43
21 22 23 25 27 28 29 30 30 31 31 31 31 32 32 33 34 33 32 33 34 35 34 33 34 35 37 38 38 38 38 38 38 37 37 37 38 39 40 40 41 41 40 41 41 43 44 43 42 40 39 38 38 38 39 40 42 43 43 43 43 42 43
22 22 23 25 27 29 30 31 32 31 31 32 32 32 33 34 34 34 34 35 36 36 35 34 35 36 37 38 39 39 39 39 39 38 38 38 39 40 41 41 42 42 41 41 42 43 44 43 42 40 39 39 39 39 41 42 44 45 45 45 43 42 41
24 25 25 26 27 29 30 32 32 32 32 32 32 33 34 35 35 35 36 37 38 38 36 35 35 36 37 38 39 39 39 40 40 39 39 39 40 41 42 43 43 43 42 42 42 43 44 44 42 40 39 39 39 40 42 44 45 46 46 45 43 40 39
26 26 27 28 29 30 31 32 32 32 32 32 33 34 35 35 36 37 38 39 39 39 38 36 36 37 38 39 39 40 41 41 41 41 40 40 41 42 44 45 46 45 44 43 43 43 44 43 42 41 40 40 40 41 43 44 46 47 46 44 41 39 38
28 28 27 28 29 31 32 33 34 34 34 34 35 36 36 36 37 39 40 40 41 40 39 38 37 38 38 39 40 41 42 42 42 41 41 42 43 44 45 47 47 46 45 45 44 44 44 43 42 41 41 42 42 43 44 45 46 46 45 41 39 38 37
30 30 29 29 29 31 32 33 34 35 36 36 37 36 37 38 39 40 41 41 42 41 40 39 38 39 39 40 41 42 43 42 42 43 43 43 44 45 47 48 48 47 46 45 45 44 44 43 42 42 42 43 44 44 45 45 45 45 42 39 37 37 36
30 31 31 31 31 32 33 34 35 36 36 37 38 38 38 39 40 41 42 42 42 41 40 40 39 40 41 42 42 43 44 43 43 44 44 45 45 46 48 49 49 48 47 45 45 44 43 43 42 43 43 45 46 45 45 46 44 43 40 36 34 35 35
31 31 32 33 33 34 35 35 36 37 37 38 39 39 39 40 41 42 42 43 43 42 40 39 40 41 42 43 44 45 45 44 44 45 45 46 46 48 49 51 50 49 48 46 45 44 44 43 43 44 44 45 46 46 46 45 42 40 38 35 33 34 34
31 32 32 33 34 35 36 37 38 38 38 39 40 40 41 42 42 42 43 44 43 41 39 39 40 43 44 45 45 46 46 45 45 46 46 47 48 49 50 51 51 49 48 46 46 45 44 43 43 44 45 45 46 46 45 43 40 37 36 34 32 32 32
32 32 33 33 35 36 37 37 37 38 39 40 41 41 42 43 43 42 43 44 42 40 39 40 42 44 46 46 46 46 46 46 46 46 46 47 49 50 51 52 51 50 48 46 46 45 45 44 44 45 46 46 45 44 43 41 37 35 34 32 31 31 30
33 33 34 34 35 37 38 37 37 39 40 41 42 42 43 43 42 42 43 42 41 40 41 42 44 46 47 47 47 47 46 46 46 46 47 48 50 51 51 52 51 49 48 46 45 45 45 44 45 46 46 45 44 42 40 37 34 33 32 30 29 29 28
33 34 35 35 35 36 37 37 38 39 40 41 42 43 42 41 41 42 42 41 41 43 44 44 46 47 48 48 48 47 47 47 47 47 48 49 50 51 52 52 51 49 48 46 45 45 44 45 46 46 45 43 42 40 38 35 32 31 31 29 28 27 27
33 34 34 35 35 35 35 36 37 39 40 41 41 41 41 41 42 42 41 41 43 45 46 47 48 48 48 48 49 48 48 47 47 48 49 50 51 52 52 51 50 48 47 46 45 44 44 45 45 44 43 42 40 37 35 33 30 29 29 28 27 26 27
32 32 33 33 33 34 34 35 36 38 39 39 39 39 40 41 41 41 41 43 45 46 47 48 50 49 49 49 49 49 49 48 48 49 49 50 51 51 51 50 48 48 47 46 45 44 44 44 42 41 41 39 36 33 32 31 29 28 28 28 26 26 27
30 31 31 31 32 33 33 34 36 37 37 38 38 39 40 41 41 41 42 44 46 47 48 50 51 50 49 49 49 49 49 49 49 49 50 50 50 50 50 49 49 49 48 46 44 44 43 42 40 39 38 35 32 30 30 30 29 28 27 28 26 26 27
29 30 30 31 32 32 33 34 35 36 36 37 38 40 40 40 41 42 44 45 46 47 49 50 51 50 49 49 49 49 49 49 48 49 49 49 49 48 48 49 49 49 48 46 44 43 41 40 36 34 34 32 30 28 27 28 29 28 28 28 27 26 28
29 30 31 32 32 33 33 34 35 35 36 37 38 40 40 41 42 43 44 45 46 47 49 50 50 49 48 48 48 49 49 48 48 48 48 49 48 47 47 49 50 50 48 46 44 42 40 39 36 32 31 30 28 27 26 27 28 29 29 28 27 27 29
31 32 33 33 33 34 35 35 36 37 38 38 39 40 41 42 43 44 44 44 45 46 48 49 48 48 47 47 47 48 49 49 48 48 48 47 46 46 48 50 51 50 49 47 44 41 39 39 36 33 31 29 27 26 26 26 27 29 29 28 27 27 29
34 34 34 34 34 35 36 37 37 38 39 40 40 41 41 42 43 43 44 44 45 46 47 47 47 47 46 45 46 48 49 48 48 48 48 46 45 46 49 51 51 50 49 46 42 39 38 37 35 32 29 28 27 25 24 25 26 27 28 27 27 27 28
36 36 36 36 37 37 38 38 39 39 40 40 40 40 41 41 42 44 45 45 46 47 47 47 48 48 47 46 46 47 47 47 47 47 48 47 46 47 50 51 50 50 48 44 41 38 37 36 35 31 28 27 27 25 23 23 25 27 27 27 26 26 27
38 38 38 38 39 39 39 39 39 40 40 40 39 40 40 41 43 44 45 46 47 48 48 48 49 49 48 46 46 46 46 47 47 47 47 48 48 49 50 50 49 48 45 41 39 37 36 35 34 31 29 27 26 24 22 22 25 28 27 26 25 25 26
39 39 39 40 40 40 40 40 40 40 39 39 39 39 40 41 43 44 45 45 46 47 47 48 48 48 47 46 45 45 46 46 46 47 47 48 49 49 49 49 48 45 41 38 36 36 35 34 32 31 29 27 25 23 22 22 25 27 27 26 25 24 24
40 40 41 41 41 41 41 40 40 40 39 39 39 40 40 42 43 44 45 45 45 46 46 47 46 46 46 45 45 45 45 45 45 46 47 48 48 48 48 48 47 43 40 38 37 35 34 34 31 30 28 26 24 22 22 23 25 26 26 25 24 23 23
41 41 42 42 42 41 41 41 40 39 39 40 40 41 42 43 44 44 45 46 46 46 46 46 46 45 44 44 44 44 44 44 44 45 46 47 47 47 47 47 46 43 40 39 37 35 34 32 29 28 27 25 24 23 23 23 24 25 25 24 23 23 23
40 41 41 42 42 42 41 41 40 40 40 41 42 42 43 44 45 45 45 46 47 47 47 46 46 44 44 44 44 44 43 44 44 45 45 46 46 46 47 46 44 42 41 40 38 36 33 29 26 26 26 26 26 25 24 24 24 25 25 24 22 22 23
38 39 41 42 43 43 42 42 41 41 42 43 44 44 44 45 45 45 45 46 47 47 47 46 45 44 44 44 43 43 43 43 43 43 44 45 45 46 46 44 42 40 41 40 37 36 32 27 25 25 25 25 25 24 23 23 24 25 25 24 23 22 22
39 40 42 43 43 43 43 43 43 44 45 45 45 45 45 45 45 45 45 46 47 47 46 45 43 43 43 43 42 42 42 41 41 42 42 43 44 44 44 43 41 40 40 39 37 34 30 26 24 24 23 22 21 21 21 22 23 23 24 23 23 22 22
42 42 43 43 43 42 43 45 46 47 47 47 46 46 45 45 45 46 46 47 47 47 45 43 42 42 42 42 41 41 41 40 40 41 41 42 43 43 42 41 41 40 39 36 33 30 26 23 21 21 20 18 18 18 19 20 21 22 23 22 22 22 22
45 45 45 46 44 43 45 47 49 50 50 48 47 47 46 46 46 46 47 48 48 46 44 43 42 42 42 41 40 40 39 39 39 40 40 40 40 41 40 40 39 37 34 29 25 23 21 19 18 18 17 17 17 17 18 19 20 21 22 22 22 22 22
46 47 48 48 46 45 47 50 52 52 50 49 48 48 47 47 47 47 47 48 48 46 43 42 42 41 41 40 40 39 38 38 38 38 39 39 38 38 38 38 36 33 29 24 19 17 16 16 15 15 16 16 16 16 17 18 20 20 21 21 21 21 22

ECMWFFLT1_500_spd_003.txt.gz
Wind_Speed
21 24 26 26 25 24 25 26 25 24 23 22 22 21 22 24 23 23 23 24 25 26 26 27 27 27 26 26 26 27 27 28 29 30 31 31 32 32 33 33 34 34 34 35 35 35 36 35 35 35 35 36 37 39 40 42 43 43 42 42 42 42 41
21 23 26 27 28 26 26 29 29 28 28 25 22 22 24 25 24 24 24 25 26 27 27 28 28 28 28 28 28 28 29 29 30 31 32 32 33 33 34 34 35 35 35 35 36 36 36 36 36 36 36 37 38 39 40 42 43 44 43 42 42 41 41
20 22 25 26 28 27 27 31 32 31 30 27 24 24 26 27 25 24 26 27 28 28 28 29 29 29 29 29 29 30 30 31 31 33 34 34 34 34 35 36 36 36 36 36 37 37 37 37 37 38 38 39 39 40 41 42 43 44 44 43 42 41 41
21 21 23 25 26 26 26 29 32 31 30 28 26 25 27 28 26 25 28 29 30 29 29 30 30 30 30 30 31 31 31 32 33 34 35 35 36 36 37 38 38 38 38 38 38 38 39 39 39 39 40 40 41 41 43 43 44 45 45 44 43 42 42
20 21 23 23 23 25 25 26 28 29 30 30 27 26 28 29 26 26 29 31 31 30 31 31 31 31 31 32 33 33 33 33 34 35 36 37 37 37 38 39 39 39 39 39 39 39 40 40 41 41 42 42 42 43 44 45 45 45 45 44 43 42 43
18 20 22 21 19 22 24 24 25 26 29 31 26 25 28 28 25 27 30 31 32 32 32 32 32 32 33 34 35 35 34 35 35 37 38 38 38 38 39 40 40 40 40 40 40 40 41 41 42 43 43 43 44 44 45 47 47 46 45 44 43 43 44
17 18 21 21 19 21 24 23 23 23 27 29 25 24 28 27 25 28 30 31 33 33 33 34 34 34 35 36 36 36 36 36 37 38 39 39 39 39 40 40 40 41 41 41 41 41 42 42 43 44 44 45 45 45 46 47 48 47 46 45 45 46 46
17 17 20 22 21 21 22 21 23 23 25 28 25 25 29 29 28 30 31 31 34 35 35 35 35 35 36 37 37 37 36 37 37 38 39 40 40 40 41 41 40 40 41 42 42 42 42 43 44 45 46 46 46 46 46 47 48 48 47 47 47 48 49
19 18 20 23 22 22 22 21 22 23 24 26 26 26 30 31 30 32 32 32 34 35 37 37 37 37 38 38 38 37 37 38 38 39 39 40 41 41 41 42 41 41 41 41 43 43 44 45 46 47 47 46 46 46 46 47 48 49 49 48 48 49 50
22 20 21 23 23 23 23 23 23 24 24 26 26 27 30 31 31 32 33 33 35 37 38 39 39 39 39 40 40 39 38 38 38 39 39 40 41 41 42 42 43 43 42 42 43 44 45 46 47 47 47 46 46 46 46 47 48 50 50 49 50 51 50
22 23 24 25 25 26 25 25 26 26 26 27 27 28 31 32 32 33 33 34 36 38 40 41 40 41 41 41 41 40 39 39 38 39 39 40 41 42 43 44 44 45 44 44 44 45 46 47 47 47 46 46 45 46 46 47 49 51 50 48 48 47 45
25 25 26 27 28 29 28 28 28 28 28 27 28 30 31 32 34 35 35 36 37 40 41 41 41 42 43 43 43 42 41 39 38 39 40 41 42 43 44 45 46 46 46 45 45 45 46 47 47 46 46 46 45 45 46 46 48 49 50 50 49 42 39
27 26 26 28 29 30 29 29 29 28 28 28 29 30 31 33 34 35 36 37 38 39 40 41 42 44 44 44 45 44 41 39 38 40 41 42 43 45 46 46 47 47 47 46 46 46 47 47 47 46 46 46 46 46 47 47 47 47 48 51 52 46 44
30 29 27 28 30 31 30 30 29 30 30 30 30 31 31 32 34 35 37 38 38 37 39 42 44 45 45 45 45 44 41 40 40 41 43 44 46 47 47 47 48 47 47 46 46 46 47 47 47 47 47 46 46 46 47 47 47 47 47 48 49 50 48
34 33 30 29 30 32 32 32 31 31 32 32 33 32 32 33 34 36 37 37 36 37 40 43 44 45 45 45 45 42 41 42 43 43 45 46 47 48 47 48 48 47 47 47 46 47 47 48 48 48 47 47 47 47 47 47 47 48 47 46 46 47 46
36 36 34 31 31 32 34 34 33 33 34 35 35 34 34 35 35 36 36 36 38 40 42 43 45 46 46 45 43 42 43 44 45 45 47 48 49 49 48 48 48 48 48 48 47 47 48 48 48 48 47 47 47 47 47 46 47 47 47 45 44 42 41
35 36 35 34 33 33 35 35 35 36 36 36 37 36 36 37 37 36 36 37 40 42 43 44 46 46 46 44 43 43 45 46 46 47 49 50 50 50 49 49 49 49 49 48 48 48 48 49 48 47 47 47 47 48 47 47 46 46 45 43 41 38 36
33 34 34 35 35 35 35 36 36 37 37 37 37 37 37 38 38 37 37 39 41 42 43 45 46 46 45 44 43 44 46 47 47 49 50 51 50 50 50 50 49 49 49 49 49 49 49 49 48 47 48 48 48 47 45 43 43 42 41 39 37 35 33
33 33 34 35 35 35 36 36 37 37 38 38 37 36 37 38 38 38 38 40 41 42 44 45 46 46 45 44 44 45 46 47 49 50 51 51 51 50 50 50 50 50 50 50 50 50 49 49 48 48 49 48 47 45 41 39 40 40 39 36 33 32 31
31 32 33 34 35 35 35 35 37 38 37 36 35 35 37 38 37 38 39 40 41 43 45 45 45 45 45 45 45 46 46 48 49 50 51 51 51 51 50 49 49 50 50 50 50 50 50 48 48 49 49 48 47 45 42 40 40 40 38 34 31 31 31
30 30 31 33 33 34 34 35 36 37 35 33 34 35 36 35 36 38 39 41 42 44 45 45 45 46 46 45 46 46 47 48 50 51 51 51 51 51 50 48 48 49 50 50 50 50 49 48 48 49 48 46 45 44 43 41 39 38 37 34 31 30 30
28 28 29 30 31 32 32 33 34 34 32 31 33 34 34 34 36 38 39 41 43 45 44 44 45 46 45 45 46 47 48 49 51 52 52 51 51 50 48 47 46 47 49 49 50 49 49 48 49 49 48 46 44 43 42 41 39 38 37 34 31 29 29
27 26 26 28 28 28 29 29 30 31 30 31 32 33 33 34 36 38 40 41 43 44 44 44 45 45 44 44 46 48 48 49 51 51 50 50 49 48 47 46 45 46 48 48 49 49 48 49 50 49 47 46 45 43 41 39 37 36 35 34 31 28 28
27 26 26 26 27 27 28 28 28 29 30 31 32 32 33 35 36 38 40 42 42 43 43 44 44 44 44 45 46 47 48 49 50 50 50 49 48 48 46 44 44 45 46 48 48 48 47 49 50 48 46 45 44 43 41 37 35 34 33 32 30 28 28
29 29 28 28 28 29 30 29 29 30 31 31 32 33 34 35 36 38 40 41 42 43 43 44 44 44 45 45 45 46 47 48 49 50 50 49 47 47 46 44 42 43 45 47 48 47 48 49 49 47 45 44 43 42 40 36 33 32 32 31 29 27 28
32 32 31 32 32 32 32 31 31 32 32 33 33 34 35 36 37 38 39 40 41 41 42 43 44 44 44 44 45 46 47 48 49 50 50 48 46 46 47 45 43 43 46 48 47 45 46 48 48 46 44 43 43 42 38 34 31 31 31 30 27 26 27
33 33 33 34 34 34 34 33 33 34 34 35 35 36 36 37 37 38 39 40 40 40 42 44 45 44 44 44 45 46 47 48 50 51 50 48 46 46 47 46 44 44 46 48 45 43 45 47 47 45 43 41 41 40 37 33 30 30 31 29 26 25 27
34 34 35 35 35 35 35 35 35 36 36 36 37 37 37 37 37 38 39 40 40 41 42 44 44 44 44 45 45 46 47 48 49 51 50 46 45 46 46 45 44 44 45 46 44 45 47 48 47 45 42 40 39 39 37 33 30 30 30 27 25 25 27
35 36 36 36 36 36 36 35 36 37 37 37 37 38 38 39 39 39 39 39 41 42 43 43 43 44 45 46 46 45 47 47 48 50 48 45 45 46 45 45 44 43 44 44 44 46 47 47 46 44 41 40 39 38 36 32 29 29 28 25 23 24 25
35 36 37 37 37 36 36 37 37 37 38 38 39 40 40 40 41 40 39 39 41 42 43 44 44 45 46 47 46 46 48 48 48 47 45 45 46 46 45 45 43 42 43 44 44 46 46 45 45 44 41 40 39 38 36 32 29 28 27 25 23 24 25
36 36 37 37 36 36 38 38 38 39 40 39 39 39 39 40 41 40 39 40 41 42 43 45 45 45 47 48 48 49 49 49 48 46 45 46 47 46 45 44 42 42 43 44 44 45 44 43 45 44 41 40 38 35 33 31 29 28 27 25 25 25 25
38 37 37 37 36 37 39 40 39 39 40 40 39 38 38 39 39 39 40 42 42 43 45 47 48 48 48 49 49 49 49 48 47 46 45 46 46 46 44 42 42 43 43 42 42 43 43 43 43 41 38 36 33 32 33 32 30 29 28 26 25 24 24
38 37 37 37 37 38 39 38 38 38 39 40 39 38 38 40 40 40 43 45 46 46 48 50 51 50 49 49 48 48 47 46 45 45 45 45 44 43 43 42 43 44 43 41 41 42 42 42 43 41 37 32 29 30 33 32 30 29 28 26 24 23 24
37 37 38 37 37 36 36 36 37 38 38 39 39 40 41 43 44 46 48 48 49 50 51 51 52 51 50 48 47 47 46 44 44 44 44 43 42 42 43 43 42 43 42 41 40 41 40 40 42 41 36 30 28 28 28 29 28 27 25 24 23 22 22
37 37 37 35 34 35 35 37 38 39 39 40 41 43 45 45 47 49 49 49 51 53 53 52 51 50 49 47 47 47 46 44 44 43 42 41 41 42 43 42 41 41 40 40 40 40 40 39 40 39 34 29 28 27 27 26 26 23 22 21 21 20 20
38 37 38 37 35 35 37 39 40 41 42 43 44 46 48 48 48 49 50 52 54 54 53 52 51 49 47 46 46 47 45 44 43 42 41 41 42 42 42 40 39 39 39 39 39 38 38 38 38 36 30 25 24 25 25 24 22 20 20 20 19 19 19
39 39 40 39 37 37 40 42 43 43 43 45 47 48 49 50 49 49 52 55 56 54 52 50 50 49 47 46 46 46 44 43 42 42 41 41 40 41 40 39 37 36 37 38 38 36 36 37 37 32 26 21 20 21 20 19 18 18 19 19 19 20 20
40 40 39 39 40 42 45 46 47 45 44 46 48 49 49 51 52 52 54 55 54 51 50 49 49 49 48 46 46 45 44 43 42 41 40 40 39 39 39 38 36 36 36 37 36 35 35 36 33 27 22 20 19 18 18 17 16 16 17 18 19 20 19

ECMWFFLT1_500_spd_006.txt.gz
Wind_Speed
23 24 24 21 21 22 20 19 21 20 19 20 22 25 24 23 24 27 29 27 27 27 25 25 26 24 22 21 22 24 25 26 27 29 30 30 31 32 33 33 33 33 33 34 35 35 35 35 36 36 37 37 37 37 37 38 39 40 40 40 41 41 41
27 26 24 22 21 22 21 19 20 20 18 20 23 25 25 26 27 29 30 29 29 29 28 26 27 27 24 22 22 24 26 27 28 30 31 32 32 33 34 35 35 35 35 35 35 36 36 36 37 37 37 38 38 39 39 40 40 41 41 42 42 42 42
27 26 25 24 22 21 20 18 19 19 18 20 23 24 25 25 27 28 29 29 30 31 30 28 28 28 25 23 23 25 26 28 30 31 32 33 33 34 35 35 36 36 36 36 36 36 36 36 37 37 38 39 39 40 40 41 42 43 43 43 43 43 43
27 25 25 27 24 21 20 18 17 18 18 20 23 25 25 25 25 26 26 27 29 30 29 27 28 28 26 24 24 25 27 28 31 33 34 35 35 35 35 36 36 36 37 37 37 37 37 37 37 38 39 40 40 41 42 43 43 44 44 44 44 44 44
28 25 23 27 25 19 19 19 17 18 18 19 21 24 25 23 22 23 24 26 27 28 27 26 28 29 26 25 25 27 28 30 32 34 35 36 36 36 36 36 36 36 37 38 38 37 37 38 39 39 40 40 41 42 43 44 45 45 45 45 44 44 44
25 25 22 24 23 18 17 19 18 18 18 18 20 23 23 22 21 22 24 27 28 28 26 27 29 30 28 26 26 27 29 31 33 35 36 37 37 37 37 37 37 37 37 38 38 38 38 39 39 40 41 41 42 43 44 45 46 46 46 45 45 45 44
23 25 24 23 23 20 17 17 17 18 18 18 20 21 21 21 21 23 26 27 29 29 27 28 30 30 29 27 27 29 30 32 34 36 37 37 37 37 36 36 36 36 37 37 38 39 39 40 40 41 42 43 43 44 45 46 47 47 46 46 46 45 45
22 24 24 23 24 23 17 15 17 19 19 20 21 20 21 23 23 25 26 27 29 30 28 29 30 31 30 29 29 30 31 33 34 36 36 36 37 37 36 35 35 35 36 36 37 38 39 40 41 42 43 44 45 45 45 46 47 47 47 47 46 46 46
21 22 22 21 23 24 20 17 19 21 21 22 24 22 22 23 24 26 27 27 29 30 30 30 30 30 32 32 32 32 32 33 35 36 36 36 37 36 35 35 35 36 36 37 37 38 39 40 41 43 44 45 46 46 46 46 46 46 47 47 47 47 47
20 20 21 20 22 24 24 23 21 23 25 25 26 26 24 23 25 27 28 28 29 30 31 31 30 31 32 33 33 33 34 36 37 37 36 35 35 35 35 36 36 37 37 38 39 41 41 42 42 44 45 45 46 46 46 46 46 46 46 47 47 47 48
22 23 23 23 24 25 26 26 25 26 27 26 27 28 26 26 26 26 28 29 30 31 31 30 31 32 32 33 33 34 36 39 38 37 36 35 34 35 36 37 37 38 39 40 41 43 43 43 43 44 44 45 45 46 46 47 47 46 47 47 48 48 49
25 27 28 28 29 28 27 28 27 27 29 29 29 29 28 28 27 27 29 30 32 33 31 29 31 33 34 33 32 33 37 39 38 37 35 34 34 36 37 38 38 39 40 41 43 44 44 44 45 45 45 45 45 46 47 48 48 48 48 48 48 49 50
24 27 31 33 32 30 29 30 29 30 32 32 32 32 30 29 28 29 30 32 33 33 31 31 31 33 34 32 32 35 38 38 36 36 35 35 36 37 38 39 40 41 42 44 46 46 46 46 46 47 46 46 47 47 48 49 49 49 49 49 48 49 49
26 26 29 33 34 32 32 33 32 32 33 34 34 32 31 30 30 31 32 33 34 32 32 33 33 33 33 32 34 39 39 36 35 35 36 37 38 38 39 40 41 43 45 46 48 48 48 47 47 47 47 47 48 48 49 49 49 49 50 49 49 49 48
31 30 29 31 36 37 36 36 35 33 33 34 34 32 30 30 32 33 34 35 34 33 34 35 33 32 32 33 38 41 39 37 35 35 36 38 39 39 40 41 42 44 46 48 48 49 48 48 48 48 48 48 48 48 49 49 49 50 51 51 50 49 47
31 35 35 33 35 39 40 39 37 34 33 33 33 33 31 31 33 35 35 35 34 34 36 35 32 31 32 35 41 42 40 37 37 37 38 38 39 40 41 42 44 46 48 48 49 49 49 49 49 49 49 49 48 49 50 49 49 50 51 51 50 49 48
30 34 38 39 37 39 40 40 39 35 32 32 33 33 32 32 34 35 33 34 35 35 36 34 31 31 34 38 42 42 39 38 38 39 39 40 40 41 42 44 46 48 49 49 49 50 50 50 49 49 49 49 49 50 50 49 49 50 51 50 50 48 48
32 33 36 40 41 40 39 39 39 36 34 34 35 36 34 32 33 33 32 33 36 37 36 34 32 34 38 40 42 41 39 38 39 40 40 41 42 43 45 46 48 50 50 50 49 50 49 49 50 50 50 49 49 50 50 49 49 49 50 49 48 47 47
35 34 34 35 39 40 39 36 36 35 34 33 34 38 38 31 29 31 32 34 36 36 34 33 35 39 40 41 41 40 39 40 40 41 42 42 43 45 46 48 50 51 51 50 50 49 48 48 50 51 51 49 49 49 49 49 49 49 49 48 46 45 44
35 34 33 34 35 37 37 34 32 33 33 30 29 32 35 31 30 33 33 36 38 35 32 33 37 40 40 40 40 39 40 40 41 42 43 44 45 46 47 49 50 51 50 50 49 47 47 49 50 51 50 49 49 49 48 48 49 49 48 46 44 43 42
35 33 33 32 31 32 33 31 29 30 30 28 26 27 30 32 34 36 37 39 38 34 32 34 37 38 39 40 40 40 40 41 41 42 44 45 46 47 49 50 51 51 50 49 48 47 47 48 48 49 49 49 48 48 48 49 50 47 45 44 42 41 39
35 31 28 27 26 27 28 27 26 27 27 28 29 30 31 32 36 38 39 40 38 34 35 37 38 39 40 40 41 41 41 41 42 43 45 46 48 49 50 51 51 51 51 49 47 46 45 46 47 48 48 48 48 48 48 49 48 45 43 42 40 38 37
34 30 27 26 26 26 26 26 27 26 26 29 32 33 33 34 36 37 37 37 34 34 37 39 39 40 41 40 41 42 41 42 43 44 45 47 48 50 51 51 51 51 51 48 45 43 43 45 46 47 47 47 47 47 48 47 45 43 42 41 39 37 35
31 31 29 29 29 28 27 27 28 28 29 32 34 35 36 35 33 33 34 33 31 33 36 37 38 40 40 41 42 43 42 43 44 45 46 47 48 50 50 51 51 51 50 47 43 42 44 45 46 46 47 46 47 48 47 45 43 41 40 40 38 36 34
31 33 32 32 32 31 29 29 29 30 30 31 34 37 38 34 32 33 33 30 30 33 34 34 36 39 40 41 43 43 43 45 45 45 46 48 49 49 49 50 51 51 50 46 43 43 43 44 45 45 45 45 47 47 46 43 42 41 39 39 38 35 32
32 34 34 34 33 32 31 31 31 32 31 33 36 38 37 35 33 32 30 30 31 33 33 34 38 41 42 42 43 44 45 46 46 46 46 47 48 49 49 50 51 50 48 43 42 43 42 42 43 43 44 46 46 44 43 43 43 40 38 38 37 33 30
33 33 35 36 35 33 32 33 34 34 33 36 37 36 35 35 32 30 30 32 33 32 34 38 41 44 43 42 43 45 45 46 45 44 45 47 48 49 49 49 51 50 46 42 42 42 41 40 41 41 43 44 41 39 40 43 43 40 38 38 35 31 28
34 35 37 38 37 35 34 35 37 36 36 37 37 35 33 31 30 29 31 32 31 32 36 40 42 43 42 41 43 45 44 43 42 43 45 48 48 48 47 48 50 48 44 42 43 43 41 40 40 41 41 40 39 39 40 43 44 42 40 37 32 28 27
38 39 40 40 38 37 35 34 34 35 35 33 32 31 30 29 29 30 31 31 32 35 37 39 41 42 41 41 43 42 41 41 42 45 48 49 48 47 46 46 48 45 42 44 46 46 42 41 41 42 41 39 40 42 42 44 45 44 42 37 31 28 26
40 41 43 43 41 38 34 32 33 34 34 31 29 31 32 30 30 31 31 33 35 37 38 40 41 41 41 42 42 41 40 42 45 48 50 49 49 49 47 46 47 45 45 46 47 45 43 42 42 43 42 40 40 41 42 44 44 44 42 35 29 28 27
41 44 45 45 44 39 33 32 36 37 35 34 34 35 33 30 31 32 33 35 37 38 39 40 41 41 41 41 42 43 43 45 48 50 50 50 51 51 49 47 47 47 47 47 45 44 44 44 43 42 41 41 40 41 42 43 43 43 39 30 25 26 27
44 43 44 46 45 38 32 33 37 37 35 35 35 35 33 33 33 34 34 35 37 38 40 40 41 43 44 43 43 44 47 50 51 51 52 53 53 51 50 49 48 48 47 46 44 44 44 44 43 42 41 41 41 41 43 43 42 40 35 29 26 27 26
45 43 45 46 42 37 32 35 37 36 35 36 36 36 36 36 34 33 35 37 38 39 40 41 42 44 46 46 45 47 52 55 54 55 56 55 52 51 51 50 49 48 47 45 44 44 44 44 43 42 41 40 40 41 42 43 41 38 33 31 31 30 27
45 43 43 41 38 36 36 38 36 35 36 37 37 37 36 34 33 35 39 42 42 42 44 45 46 48 50 50 51 53 56 57 56 56 56 54 54 54 52 50 49 48 46 45 44 44 44 43 42 41 40 39 39 40 42 42 39 35 31 29 28 27 25
42 39 36 36 37 39 40 38 36 36 37 37 38 38 36 35 36 40 44 46 45 46 47 48 49 51 52 53 55 56 56 57 57 56 56 55 55 54 52 50 48 46 45 44 44 44 43 42 41 40 39 38 38 39 41 39 35 31 28 25 24 23 22
41 38 37 39 41 42 41 40 40 40 40 40 41 39 36 36 38 42 45 47 48 48 49 49 51 53 54 56 56 56 56 57 57 57 57 57 54 52 51 49 46 44 44 44 44 43 42 40 39 38 37 36 37 38 38 36 31 27 24 22 21 21 20
42 41 40 41 42 42 43 43 42 41 40 41 41 39 38 39 42 44 47 48 49 50 51 53 54 55 55 55 55 55 56 57 57 57 57 55 53 52 50 47 45 44 44 43 43 42 41 40 38 37 36 35 35 36 35 32 28 25 23 21 20 20 19
43 42 42 42 42 43 42 41 41 41 42 43 42 40 40 43 46 46 48 49 50 51 53 54 54 53 53 54 55 56 56 56 55 55 54 53 52 50 48 46 44 43 42 42 42 41 40 39 38 37 36 35 34 33 32 29 27 26 24 22 21 21 20

ECMWFFLT1_500_spd_012.txt.gz
Wind_Speed
18 12 10 10 12 14 15 17 19 20 19 18 18 20 21 21 22 22 23 24 23 23 23 23 24 24 25 24 23 23 22 21 19 20 22 23 23 24 25 26 28 29 29 29 29 30 29 29 28 27 27 26 26 27 28 29 30 31 31 32 33 34 35
20 13 8 9 14 17 19 19 19 19 20 19 19 19 20 22 22 21 22 23 22 22 22 22 22 23 22 21 20 21 21 19 17 18 21 22 23 24 25 27 28 29 29 29 29 29 28 27 27 26 26 26 27 28 29 30 31 31 31 32 33 34 35
18 14 10 9 10 12 14 15 17 19 19 19 19 19 20 22 21 20 21 21 21 22 22 22 22 22 21 20 20 21 21 20 18 19 21 22 23 24 26 27 28 29 29 29 29 29 28 27 26 26 26 27 27 28 29 30 31 32 32 32 33 34 35
17 16 15 16 15 14 13 11 13 17 18 18 19 20 21 21 21 20 20 20 21 22 22 22 22 22 22 21 21 22 22 21 21 21 22 22 22 24 25 26 26 27 28 28 28 27 27 26 26 27 27 28 28 29 30 31 32 33 34 34 34 35 36
20 20 19 19 18 17 17 14 11 12 14 15 17 19 19 19 20 20 20 20 21 23 23 23 22 23 24 23 23 23 23 22 22 23 23 21 21 23 24 24 24 26 27 27 27 26 26 27 27 28 28 28 29 29 31 32 34 35 35 35 34 35 36
23 24 22 19 16 16 18 17 13 11 13 14 15 16 16 17 18 19 20 21 22 24 25 24 23 23 24 25 24 24 23 23 23 24 23 22 22 23 23 23 24 25 26 26 26 26 27 28 29 29 29 29 30 31 33 34 34 35 36 36 35 36 37
27 27 25 21 17 15 16 16 14 12 13 15 15 15 16 17 17 19 20 22 24 25 27 26 25 24 24 25 25 24 24 23 23 24 24 23 24 23 22 22 24 25 26 26 26 26 28 29 30 30 30 30 31 33 34 34 35 36 37 37 36 36 37
30 29 28 25 21 18 17 16 16 13 11 13 14 15 16 17 18 20 22 23 24 26 28 29 28 27 25 26 26 26 25 24 24 24 24 24 24 23 22 23 24 26 27 27 27 27 28 30 31 30 30 31 33 34 34 35 36 37 37 37 37 37 38
30 29 29 28 25 22 20 19 17 15 13 13 14 15 16 18 20 21 23 24 26 27 29 30 31 29 27 26 27 28 27 25 24 24 25 25 25 24 23 24 25 27 28 28 28 28 29 31 31 31 31 32 32 33 34 35 37 38 38 38 38 39 40
29 29 29 29 27 26 24 19 16 16 15 15 15 16 18 19 21 22 24 27 28 28 29 31 31 30 28 27 28 29 29 27 25 24 25 26 25 24 23 24 26 29 30 29 29 30 30 32 32 31 31 32 33 33 35 36 37 38 39 39 39 39 40
28 28 29 27 26 25 22 17 15 15 15 15 16 17 18 20 22 24 26 28 28 28 29 31 31 30 30 30 30 30 30 28 26 25 25 26 26 25 23 24 27 29 30 30 31 32 32 33 33 32 33 34 35 35 36 37 38 38 39 38 39 39 40
28 27 28 27 26 24 21 19 18 17 16 16 17 19 21 22 24 26 28 28 28 28 29 31 31 30 31 32 32 31 31 30 28 26 25 26 27 27 25 25 28 30 30 30 32 33 34 34 34 34 35 36 36 37 38 38 38 39 39 39 39 40 41
29 27 27 26 25 25 24 22 20 19 19 19 20 22 24 26 27 29 30 30 30 30 31 31 31 29 31 32 32 32 33 32 31 29 27 27 27 27 26 26 29 30 30 31 34 35 35 35 35 35 36 36 37 38 38 38 38 39 40 40 41 42 42
30 30 27 23 22 24 26 24 20 18 19 21 23 24 27 30 32 32 32 33 32 33 33 31 30 31 32 33 34 35 35 34 35 33 28 27 28 27 26 28 30 30 29 32 34 35 35 36 36 36 35 36 37 38 38 38 39 40 40 41 42 42 41
35 34 29 24 25 28 29 28 24 22 23 24 24 26 30 33 35 36 36 35 35 37 35 32 32 33 35 37 39 39 35 33 35 32 29 30 31 27 26 28 29 28 29 32 34 35 36 37 36 35 35 35 36 37 38 38 39 40 41 41 41 40 39
38 36 30 28 30 31 31 31 30 28 28 27 26 28 32 34 36 38 38 37 37 38 36 35 35 35 36 39 41 39 35 33 33 32 32 34 32 25 24 26 26 27 29 32 34 36 37 37 36 35 35 35 36 37 38 38 39 40 41 41 41 39 39
39 38 34 33 34 33 32 32 31 31 31 31 32 33 34 35 36 37 39 39 38 37 37 38 37 36 36 38 40 39 36 34 36 39 40 37 31 24 25 25 25 27 29 32 35 37 37 37 36 35 34 34 37 39 40 39 39 40 41 41 41 41 41
42 40 38 36 36 35 33 31 31 31 33 36 38 38 38 38 38 38 39 40 38 38 39 39 38 36 34 35 38 37 35 36 42 46 45 38 33 27 28 26 25 27 30 33 35 36 36 36 35 35 34 35 39 41 40 39 40 41 41 42 42 43 43
43 41 38 37 37 37 36 37 37 36 36 39 40 41 41 41 41 40 40 40 41 42 41 38 36 37 37 38 39 37 35 38 42 45 43 37 33 30 30 27 26 29 31 33 35 35 36 36 35 34 35 38 41 41 40 40 41 41 41 42 43 44 44
42 40 39 39 39 40 41 43 44 43 43 43 42 42 42 42 42 42 40 41 44 45 44 40 38 38 39 42 42 41 40 38 38 41 40 35 32 32 32 28 28 29 31 32 34 34 34 34 33 35 37 40 42 41 41 42 42 41 41 43 45 45 45
40 39 39 40 42 43 43 43 45 47 47 46 44 42 42 42 42 41 40 42 45 46 46 43 40 38 39 43 45 44 39 33 30 31 30 30 31 33 30 28 29 30 31 32 32 31 31 32 34 37 39 41 42 43 44 43 41 41 43 45 45 44 44
38 40 42 43 43 43 41 40 42 45 45 44 42 42 41 41 41 40 39 40 43 46 44 39 35 34 36 39 39 32 25 24 27 29 28 29 30 29 28 29 30 32 32 32 30 30 31 34 37 39 39 41 44 46 45 43 42 43 45 45 44 44 44
42 44 44 43 41 40 38 38 40 42 42 42 41 41 40 41 41 40 39 38 40 43 42 35 31 33 35 36 34 30 29 33 35 33 31 29 28 28 30 32 34 35 35 33 32 32 34 37 37 38 41 44 46 45 43 42 45 46 45 44 44 45 45
50 47 44 43 43 40 39 40 41 41 41 41 40 40 40 41 41 40 40 38 38 40 40 36 33 35 37 38 37 39 41 40 35 33 31 29 29 31 33 35 36 36 35 34 34 35 37 38 39 42 44 44 43 43 43 46 48 47 45 44 44 45 45
51 45 42 42 41 40 41 40 39 39 40 40 40 40 40 41 41 41 41 39 37 38 39 38 37 37 39 39 39 40 39 36 35 34 31 29 31 33 35 36 37 35 34 34 36 37 39 41 43 45 44 41 42 45 47 48 49 47 46 46 46 46 45
49 46 46 46 45 45 43 38 36 37 39 40 40 41 41 41 41 42 41 40 39 38 38 39 39 40 42 42 40 38 37 37 37 35 32 32 34 34 35 36 36 34 34 35 37 39 41 42 42 42 41 43 47 49 48 48 49 48 47 47 46 46 45
49 50 53 54 52 47 40 34 35 37 37 38 40 40 41 41 41 42 42 42 41 40 40 41 41 41 41 40 38 37 38 38 37 34 34 34 34 34 36 36 34 34 35 36 39 41 42 40 39 40 45 49 51 50 50 50 49 47 47 47 47 47 46
56 57 57 53 48 42 37 36 37 37 38 40 41 41 42 41 41 42 42 42 42 42 43 43 41 38 36 36 37 39 39 38 36 35 35 36 36 38 38 35 34 35 37 39 41 41 39 38 40 45 50 52 50 50 51 50 48 47 47 47 47 46 46
59 57 52 45 41 40 39 38 39 39 40 40 39 39 39 39 39 40 40 41 43 43 43 43 40 36 35 36 38 39 39 38 37 36 35 35 34 33 33 33 36 38 39 40 42 40 36 39 46 50 51 51 50 51 51 50 48 48 48 47 46 45 44
52 45 40 38 38 40 40 41 41 41 39 37 36 36 37 36 37 38 39 40 41 42 43 43 40 37 37 38 39 40 40 40 37 32 29 29 29 29 32 38 42 42 42 43 43 41 40 43 48 50 50 50 51 51 51 50 49 49 48 47 45 43 41
44 39 37 39 41 42 42 42 42 40 37 36 36 36 36 37 36 37 38 39 40 41 43 43 43 42 42 41 40 37 36 36 35 31 31 35 37 39 41 44 45 46 47 46 45 44 44 46 48 48 49 50 51 51 51 50 50 49 48 45 42 40 38
42 40 39 40 40 41 41 40 39 38 37 37 37 37 37 36 36 36 37 37 39 41 41 43 46 47 44 41 37 31 27 29 32 33 36 41 43 44 46 47 48 48 48 47 46 45 46 46 47 48 49 50 51 51 50 50 49 47 44 41 39 37 35
40 38 37 36 36 37 37 37 37 37 37 37 38 37 37 36 36 36 36 37 40 42 41 41 40 39 37 37 36 33 33 37 40 41 43 44 44 46 48 49 50 49 47 47 46 46 46 47 48 49 50 50 50 50 49 48 45 42 39 38 37 35 34
37 36 35 34 33 34 34 35 36 36 36 37 37 37 37 37 37 38 39 40 41 42 42 40 38 38 40 40 37 36 39 41 42 42 42 43 44 47 49 49 49 47 46 46 45 46 46 48 49 49 49 49 48 48 46 43 40 38 37 37 35 34 34
37 36 34 33 34 34 34 34 35 35 35 35 36 36 37 39 39 40 41 42 42 42 42 41 40 40 41 41 39 40 41 40 38 39 42 45 47 48 48 47 46 45 45 45 45 46 47 47 47 47 47 47 46 45 42 39 37 37 36 35 34 33 32
36 35 34 34 35 35 35 35 35 35 35 35 36 38 39 41 41 42 42 43 44 42 41 39 37 37 38 39 39 39 39 37 39 43 47 49 49 48 46 45 45 45 45 46 46 46 46 46 46 46 46 46 44 41 39 37 36 35 34 33 32 31 31
35 35 36 36 36 36 36 36 36 36 37 37 38 40 41 42 41 40 42 43 42 39 36 35 36 38 39 40 40 40 41 43 46 49 50 49 49 47 45 45 44 45 45 46 45 45 45 46 46 46 45 44 42 39 37 36 35 34 33 32 31 30 30
36 37 37 37 37 37 37 38 39 39 40 40 40 41 42 42 41 41 42 42 41 39 39 39 40 41 43 45 48 49 50 50 50 50 49 49 47 45 44 43 44 44 45 45 46 46 46 47 47 45 43 42 40 38 36 35 34 34 33 32 31 30 30

ECMWFFLT1_500_spd_015.txt.gz
Wind_Speed
13 14 14 13 13 11 10 12 15 18 19 20 20 21 22 22 21 21 21 22 21 20 20 20 21 21 22 23 24 24 24 24 23 22 23 25 26 26 26 26 26 27 28 28 28 28 28 28 29 28 28 27 26 25 25 26 27 28 28 29 30 32 33
10 10 10 10 10 10 12 13 16 20 23 25 25 23 22 22 21 22 22 22 20 19 19 19 19 20 21 21 22 22 23 22 22 22 23 24 25 26 27 27 28 27 28 28 28 27 27 28 28 28 27 25 25 24 25 27 28 28 29 30 31 33 34
8 8 8 9 11 13 14 13 15 17 20 23 25 24 23 22 21 21 21 19 18 18 18 18 18 19 19 21 21 22 22 23 23 23 24 25 25 26 26 27 28 27 27 28 27 26 26 27 28 27 26 25 24 24 25 27 28 29 29 31 32 33 34
10 11 11 11 13 15 14 14 17 18 18 18 19 21 21 20 20 19 18 17 17 18 18 18 19 19 20 21 22 23 24 25 25 24 24 25 26 26 25 26 27 27 27 28 27 26 26 27 27 27 26 25 24 24 26 27 29 30 31 32 34 34 34
14 15 14 13 15 16 15 15 17 17 17 16 16 16 16 17 17 16 15 16 17 18 19 20 21 21 22 23 24 25 27 27 27 25 25 25 26 27 26 26 27 27 28 28 28 27 27 27 26 26 26 26 26 25 26 28 30 31 32 34 35 35 35
18 18 16 14 16 18 17 16 15 14 14 14 15 16 15 15 15 15 16 16 17 18 20 22 23 24 25 26 27 27 29 30 29 27 26 26 27 28 28 28 28 28 28 29 28 28 28 28 27 27 27 27 27 27 27 29 31 33 34 35 36 36 37
20 20 17 16 19 19 18 16 15 14 14 13 13 14 15 16 16 17 17 17 18 19 21 23 24 26 28 30 30 30 30 32 32 30 28 28 29 29 29 30 30 29 29 29 30 30 30 29 29 28 28 28 28 28 28 30 32 34 35 36 36 37 38
21 19 17 18 20 19 17 17 17 17 15 13 12 12 13 15 16 17 18 19 20 21 22 24 27 29 31 32 33 33 32 34 35 33 31 31 31 31 30 29 30 30 30 29 30 31 30 30 31 31 29 29 28 29 30 32 34 35 36 37 37 38 38
20 18 18 20 19 16 15 15 16 16 14 12 12 12 13 14 16 17 19 20 22 23 24 27 29 31 33 34 35 35 35 37 37 36 34 34 33 32 30 29 29 30 29 28 29 30 30 31 32 32 31 30 30 30 32 33 35 36 37 37 38 39 39
19 19 19 17 15 14 15 15 14 13 11 11 12 13 14 15 16 17 19 20 22 24 27 30 32 33 34 35 36 37 39 40 39 37 36 37 36 34 30 27 29 31 29 28 30 30 31 32 33 33 32 31 31 32 33 34 36 37 37 37 38 39 40
20 20 19 16 16 16 16 16 15 13 12 13 14 15 16 16 16 17 18 20 23 26 29 31 33 34 35 37 38 40 42 42 39 37 39 40 39 37 33 29 29 30 30 30 31 32 32 32 33 33 32 32 33 34 34 35 36 37 37 37 37 38 39
20 21 18 17 19 18 16 16 15 16 16 17 16 17 17 17 17 18 19 22 24 27 30 33 35 36 36 38 41 44 46 43 39 38 41 42 41 40 36 31 29 30 31 31 31 31 31 32 32 33 33 33 34 35 36 36 37 37 37 37 36 37 39
21 21 19 21 22 20 18 17 18 20 21 21 20 20 20 19 20 22 24 26 28 30 32 35 36 37 38 40 43 46 46 44 42 42 41 40 40 41 38 33 30 31 33 32 30 28 29 30 31 32 33 34 36 36 37 38 38 38 38 38 37 39 40
23 23 22 23 24 23 21 20 21 22 23 24 23 23 23 23 24 26 27 28 30 32 34 37 39 39 39 42 45 46 45 45 46 45 42 41 41 41 39 36 34 33 34 32 27 25 26 27 29 31 33 35 36 37 37 38 39 39 39 39 39 40 41
24 24 24 25 26 25 24 23 23 24 24 23 22 22 23 25 26 27 27 29 32 34 36 39 41 41 40 42 44 43 45 47 48 45 43 43 43 41 39 38 37 36 36 32 27 23 24 26 28 30 32 34 36 37 37 38 39 39 38 38 40 41 42
25 26 27 28 28 27 26 26 26 25 23 22 22 24 26 27 29 29 30 33 36 38 39 40 41 40 40 41 43 44 46 49 47 42 40 41 41 41 40 40 39 37 37 36 32 28 28 29 28 29 31 33 35 36 37 37 37 36 37 38 40 41 43
27 29 30 31 31 30 29 30 30 27 23 23 25 28 29 30 31 32 34 38 42 43 43 41 39 38 38 40 42 44 45 44 41 39 39 40 40 40 38 36 35 35 39 43 40 36 36 35 30 29 31 33 34 35 35 34 35 37 38 38 39 41 43
30 32 33 33 33 32 33 34 33 29 25 26 28 31 32 33 34 35 37 41 43 44 44 42 40 38 39 40 41 41 41 40 39 38 38 38 39 39 35 32 30 33 36 38 38 37 37 34 30 29 31 32 34 34 33 34 36 37 37 38 39 41 42
32 33 33 34 34 34 35 37 36 32 30 31 33 34 35 35 35 36 38 41 42 43 44 43 41 40 40 41 43 44 40 36 36 37 37 37 37 35 32 31 34 37 34 32 33 33 33 31 29 30 31 32 34 34 34 35 36 37 38 39 39 41 43
35 34 33 34 35 36 37 39 38 34 34 37 38 38 38 35 34 36 39 41 43 43 44 43 42 41 41 42 43 40 34 32 35 36 37 36 35 31 29 31 36 37 33 30 31 31 30 28 28 30 32 33 35 35 35 36 37 39 39 38 39 42 44
36 34 34 36 37 37 38 40 39 37 38 41 42 42 41 37 36 39 41 43 43 44 44 44 44 43 43 43 42 35 30 33 36 36 36 37 35 31 28 30 32 31 29 28 29 28 27 26 28 31 32 34 36 36 37 37 39 39 38 38 41 45 45
37 36 37 38 38 38 38 39 39 39 41 43 43 44 43 39 38 41 43 44 44 44 45 45 45 44 43 43 42 37 34 36 37 37 38 37 33 28 27 29 28 27 27 27 26 25 25 26 29 31 33 34 36 37 38 38 37 36 37 41 45 45 45
39 40 40 38 38 38 39 38 37 39 42 43 43 44 43 42 43 46 47 46 45 45 45 44 45 44 42 42 42 39 35 35 36 38 38 35 29 27 29 29 27 26 26 26 24 24 25 27 30 32 33 34 36 39 39 36 34 36 41 45 46 45 46
39 40 40 40 39 40 40 37 37 40 44 44 44 45 45 47 50 51 49 47 45 45 45 45 45 44 43 43 43 40 37 36 36 37 37 33 29 29 31 31 26 26 27 26 24 24 26 28 31 31 32 34 39 41 36 32 34 40 44 46 46 47 48
40 41 42 43 44 43 41 39 40 44 45 45 46 47 47 50 52 50 47 45 45 45 46 46 46 45 45 44 43 42 41 39 38 37 34 31 29 32 35 34 30 29 29 28 26 26 29 32 32 31 33 37 39 36 32 33 39 44 45 46 47 49 49
40 42 43 45 45 43 41 42 45 46 46 47 49 49 51 53 51 47 45 45 45 47 48 48 47 46 45 44 43 43 42 39 37 34 32 30 31 34 37 36 33 32 33 32 30 28 29 31 31 33 40 39 33 30 33 39 44 45 46 48 49 50 49
43 43 44 44 44 43 44 45 45 46 47 48 49 50 51 51 47 45 45 46 47 48 48 47 46 45 43 42 42 42 40 37 35 33 32 34 35 36 37 35 33 33 35 33 29 26 27 30 32 38 41 34 28 32 39 43 44 45 47 49 49 50 49
47 46 45 44 45 46 48 48 48 49 50 49 49 49 47 44 43 43 45 47 48 48 46 45 44 43 42 42 42 41 40 37 35 35 35 36 37 39 38 34 32 33 31 27 25 28 33 35 37 41 38 30 32 40 43 43 46 47 47 49 49 49 47
50 49 49 49 50 52 54 55 55 55 54 52 49 47 44 42 43 44 46 48 48 46 44 42 42 41 41 42 42 41 40 39 38 38 38 38 39 39 35 30 29 28 25 24 28 35 39 38 40 44 40 35 37 42 43 45 48 47 47 48 48 46 45
51 53 55 56 58 61 59 55 52 51 51 49 47 44 43 44 46 46 47 46 44 42 41 41 41 41 41 42 42 42 41 41 41 41 40 37 34 32 29 27 26 27 28 32 37 40 40 39 41 43 40 37 39 42 44 47 47 46 47 47 46 44 42
53 55 57 58 60 59 52 43 41 43 45 45 45 44 44 45 45 45 43 42 41 40 40 40 40 40 41 42 43 43 44 44 42 40 37 32 28 26 28 28 29 32 36 37 37 38 40 41 41 39 38 40 43 45 45 46 45 46 47 46 44 42 40
54 56 56 53 51 47 40 36 37 40 41 42 44 44 44 43 42 40 39 38 39 39 39 39 40 41 42 43 44 45 44 42 39 35 31 29 28 29 31 32 34 38 39 38 38 41 42 42 41 41 41 43 45 45 45 45 46 46 46 45 43 40 38
54 53 51 48 43 39 36 36 37 39 39 40 41 41 41 40 38 38 37 37 37 38 38 39 41 41 42 43 44 45 43 39 37 34 32 32 34 35 34 34 37 39 39 39 42 45 45 44 43 43 43 43 44 44 44 45 45 46 46 44 41 39 38
47 44 42 40 37 35 34 35 36 37 38 39 40 40 39 38 38 38 38 38 38 38 39 41 42 42 43 44 44 43 40 37 35 34 33 35 37 37 35 36 38 40 42 44 47 48 47 46 45 44 43 43 43 43 43 45 46 46 45 43 41 39 39
40 38 37 36 35 34 35 36 37 39 39 39 39 39 39 38 39 38 38 39 39 39 40 42 42 41 40 37 33 30 30 31 32 33 35 37 38 39 40 42 44 45 46 48 49 48 47 46 45 44 43 42 42 43 44 46 46 45 43 42 40 39 39
35 35 36 36 36 36 36 37 38 38 38 38 38 38 39 39 39 39 39 40 40 40 43 44 42 38 34 30 28 29 32 34 37 40 42 42 43 45 46 47 47 48 48 49 49 49 48 47 46 44 43 43 44 45 45 45 45 44 43 41 40 39 38
36 36 36 35 35 35 35 36 36 37 38 38 39 39 40 40 40 40 41 41 41 42 44 43 41 39 37 37 39 41 41 41 43 45 46 46 47 47 46 47 47 48 48 48 49 49 49 47 45 43 43 44 45 45 45 45 44 43 42 41 39 39 38
35 34 32 31 32 33 34 35 36 38 39 40 40 40 40 41 41 42 42 43 43 44 45 45 44 43 43 44 45 45 45 45 46 46 46 46 45 45 45 45 45 46 47 49 49 48 47 45 43 43 44 44 45 45 45 44 43 42 41 40 38 38 37

ECMWFFLT1_500_spd_021.txt.gz
Wind_Speed
11 8 6 7 8 10 11 10 9 8 8 9 12 15 16 17 17 17 18 18 18 18 18 18 17 16 15 15 15 14 14 14 15 17 19 19 20 21 23 24 25 27 28 27 27 28 28 28 28 27 27 26 25 25 25 25 23 23 22 22 22 22 22
10 7 7 8 9 10 10 8 8 9 10 10 11 13 15 17 18 19 20 21 21 21 20 19 18 16 15 15 14 13 13 14 16 18 20 21 22 23 24 25 26 27 27 28 29 29 30 31 31 30 28 27 27 26 27 27 26 25 24 24 23 23 23
7 7 7 9 9 10 10 9 9 10 11 12 12 13 14 15 17 19 20 21 22 22 21 20 18 17 16 15 13 13 13 15 17 19 21 23 24 25 26 26 26 26 26 28 29 30 32 33 33 32 32 31 30 29 28 28 28 27 26 26 26 25 25
5 5 7 10 11 12 12 10 10 11 12 13 14 14 14 14 14 15 17 18 20 20 19 19 18 17 16 14 13 13 15 16 18 20 21 23 24 26 27 28 28 27 27 28 29 31 33 35 35 35 36 36 36 34 31 30 30 29 28 27 28 27 27
7 8 9 10 11 13 12 11 11 12 13 14 15 15 14 12 11 11 13 15 16 16 16 16 15 15 14 13 13 14 16 18 19 20 22 23 24 26 28 30 30 30 30 30 30 32 34 37 38 38 39 40 39 37 35 34 32 30 29 28 29 30 30
10 11 11 11 11 12 12 12 13 14 15 16 16 16 14 12 10 9 9 11 12 13 13 13 13 13 13 13 14 15 16 18 19 22 24 25 26 27 29 31 32 31 31 31 32 33 35 38 40 40 40 40 40 39 38 36 35 33 31 30 31 31 31
13 13 12 12 13 13 14 14 15 17 18 17 17 16 14 12 10 9 8 9 11 12 12 13 13 13 13 13 14 15 16 18 21 23 25 27 28 29 30 32 33 33 33 33 34 34 35 37 39 41 39 39 41 41 39 37 36 34 32 32 32 32 32
15 15 15 15 16 17 17 17 17 19 19 17 15 14 13 11 10 9 9 9 10 11 12 13 13 13 12 13 15 15 17 19 21 24 27 29 30 31 31 32 33 34 34 35 36 36 36 37 40 41 40 40 43 42 38 35 34 32 31 31 33 33 33
18 19 19 19 20 21 20 20 19 20 20 16 13 12 11 10 10 10 9 9 9 10 11 12 12 12 12 14 15 16 18 19 22 25 28 29 32 33 32 31 31 33 34 36 38 38 39 39 39 38 39 42 44 39 33 30 30 29 29 31 32 32 32
21 23 21 20 23 24 23 21 21 21 20 16 13 11 10 8 8 8 9 9 9 11 11 11 12 12 14 16 17 18 19 21 24 27 28 29 31 33 34 32 31 33 34 36 38 39 39 37 36 37 37 41 43 36 26 25 27 28 30 32 33 32 30
23 24 21 19 22 24 23 22 22 21 20 17 15 13 9 8 8 9 9 9 10 11 12 12 13 15 17 19 20 20 21 24 26 28 28 30 31 33 35 34 33 34 34 35 38 38 34 30 32 34 34 36 36 27 20 22 25 28 31 33 33 32 30
24 25 21 20 22 22 23 23 23 22 20 17 16 14 11 10 10 10 10 10 11 12 13 13 15 16 18 20 21 22 23 25 27 28 29 30 31 34 35 34 34 34 35 35 37 37 30 24 26 27 27 29 25 17 18 22 24 28 32 33 34 34 33
26 25 22 22 22 22 23 24 24 22 19 17 15 14 13 12 12 11 11 11 12 12 13 14 15 17 18 20 21 22 23 25 28 30 31 31 33 35 36 37 35 33 35 35 36 38 31 21 23 23 20 21 19 18 21 24 25 29 32 33 35 36 38
26 24 22 23 23 23 24 25 24 22 19 17 16 14 13 12 12 12 12 12 12 12 13 14 16 17 19 20 21 22 24 27 30 32 33 35 36 35 36 39 37 35 37 36 36 41 36 25 23 24 19 19 20 22 26 26 27 29 30 32 36 38 39
24 23 23 23 22 22 23 24 24 22 19 18 16 15 14 13 12 13 13 13 13 13 14 16 17 18 19 20 20 23 26 28 32 33 35 38 39 38 38 39 37 37 38 37 40 43 34 26 24 24 20 21 23 26 29 30 31 30 29 31 36 37 36
23 24 23 20 19 19 20 21 22 20 18 16 16 16 15 14 14 13 14 14 15 17 18 19 20 20 20 20 21 24 27 29 32 34 37 39 39 41 42 40 39 39 38 40 42 34 22 20 25 24 21 22 25 28 31 33 33 33 31 32 36 36 33
23 23 20 17 16 18 20 21 21 19 17 17 16 16 16 16 15 15 16 17 19 21 22 23 24 24 24 23 24 26 27 30 33 35 38 39 39 42 43 43 42 38 37 43 37 22 18 24 25 23 23 24 26 29 32 33 34 33 32 34 36 34 32
21 21 19 17 18 19 21 23 22 20 19 19 18 17 18 19 18 18 20 21 22 24 26 27 27 28 28 28 28 29 30 32 34 35 38 40 40 41 43 46 45 38 40 43 31 19 25 29 24 24 25 24 26 29 31 33 34 33 33 35 35 33 31
22 21 20 20 21 22 24 24 24 22 22 22 21 21 22 23 22 23 24 25 26 27 28 29 30 31 32 32 32 34 35 36 37 38 40 40 41 41 42 45 46 43 42 35 23 20 31 29 25 27 26 24 26 28 29 31 32 32 33 33 33 32 32
26 24 24 25 27 27 27 27 27 26 26 26 25 25 26 26 26 27 28 28 29 29 30 31 32 34 34 34 35 38 40 41 42 42 42 42 42 41 41 43 44 43 37 27 21 26 31 27 26 28 25 25 26 26 27 28 29 30 30 30 31 32 33
27 26 27 30 32 31 30 29 29 29 29 29 29 29 29 29 29 30 31 31 30 31 32 32 33 35 36 36 39 43 44 45 45 44 43 43 42 40 41 42 43 40 35 31 31 33 30 27 28 27 26 26 26 26 26 25 26 28 28 29 31 33 35
27 28 31 32 33 33 32 31 30 31 31 31 31 31 31 31 32 33 33 32 32 33 34 34 34 36 38 39 43 46 46 46 47 46 44 42 42 40 40 42 42 39 36 35 35 33 30 29 28 27 27 28 27 26 25 24 26 27 27 30 33 33 34
29 32 34 34 35 35 35 34 34 33 33 32 32 32 33 33 34 34 34 34 34 34 35 36 37 39 41 43 45 47 49 49 48 46 43 41 41 40 41 43 42 38 36 36 35 34 33 31 28 27 28 28 28 26 25 25 26 27 29 33 33 33 34
32 35 37 37 38 39 38 37 35 34 34 33 33 34 35 36 36 36 35 35 35 36 37 38 41 42 44 46 48 50 52 50 47 43 41 40 40 40 41 43 41 38 38 37 36 36 35 31 28 25 25 25 26 25 24 25 27 28 31 34 35 36 37
35 38 38 39 40 40 39 37 35 34 34 35 35 36 37 38 38 36 35 35 36 37 38 40 43 45 47 48 50 51 51 48 43 41 40 40 40 41 42 42 40 39 39 38 38 38 35 30 26 23 21 21 22 23 24 26 28 30 33 35 37 38 38
38 39 39 40 40 39 38 36 34 34 35 37 37 38 38 39 39 38 37 37 37 38 39 41 45 47 49 51 51 50 48 44 41 40 39 39 40 41 42 41 40 39 39 38 38 38 35 30 26 23 20 19 22 24 26 28 30 32 34 36 37 37 37
39 39 40 40 40 38 37 35 35 36 37 39 39 38 39 40 40 41 42 40 38 38 40 43 46 49 52 53 51 48 45 42 40 39 39 39 39 41 41 41 39 39 38 38 38 37 34 30 25 21 20 21 24 26 28 31 33 34 35 36 36 37 39
40 40 41 42 41 39 36 35 36 37 38 39 39 39 40 42 43 44 44 41 39 40 43 46 49 51 54 52 47 43 41 40 39 39 38 38 38 39 39 39 38 38 37 37 37 35 31 26 23 22 23 26 28 30 33 34 33 34 36 37 37 39 41
41 41 41 41 39 37 35 35 37 38 40 42 43 43 43 43 43 44 44 42 42 44 47 50 52 53 51 47 42 40 40 40 39 38 37 36 36 36 37 37 37 37 37 36 33 28 24 23 24 25 27 30 32 34 36 35 33 34 37 38 39 42 44
43 42 42 42 40 39 39 40 42 44 46 46 46 46 45 43 42 44 44 44 45 48 51 53 52 50 45 41 39 39 39 39 38 37 36 35 35 35 36 37 37 37 37 35 31 26 25 28 29 27 28 31 33 34 34 34 35 38 40 41 43 46 47
43 43 43 43 44 45 45 45 46 47 47 46 46 47 46 44 43 44 45 46 49 51 52 51 48 45 43 40 38 38 39 39 39 38 36 36 36 36 37 37 38 37 37 35 34 32 33 35 33 30 29 31 33 34 34 36 39 43 46 47 48 48 46
46 45 44 42 43 45 45 45 44 44 44 44 46 46 46 46 46 47 48 50 51 50 48 47 46 45 43 40 38 39 40 40 39 38 37 37 37 37 37 37 38 38 38 37 37 38 38 38 36 32 31 33 35 37 39 41 44 47 48 48 47 46 46
41 39 38 38 40 41 42 42 43 42 42 44 45 47 47 48 49 50 50 49 47 45 44 44 43 43 42 40 40 40 41 40 39 38 38 38 38 38 38 38 39 39 39 39 40 40 41 40 36 33 33 37 40 41 43 44 46 46 47 46 46 46 46
35 36 37 38 40 40 41 41 41 42 43 45 47 48 50 50 50 50 47 44 42 42 42 41 41 41 42 42 41 41 40 39 39 38 39 39 39 38 39 39 40 40 41 41 41 41 40 38 36 35 37 40 42 44 44 44 44 45 45 45 45 45 45
37 39 40 39 38 38 38 39 40 42 43 43 44 46 47 48 47 45 42 40 40 40 40 41 41 42 42 42 41 41 40 40 40 40 40 40 40 40 40 41 41 42 42 43 43 42 40 38 37 38 39 41 42 43 43 43 43 43 43 44 43 43 42
40 41 41 40 40 40 41 41 41 40 39 38 38 38 39 40 39 39 38 39 40 40 40 41 41 41 40 40 40 41 41 41 41 41 41 41 41 41 42 42 43 44 44 43 43 42 41 40 39 38 39 40 40 41 41 41 41 41 41 41 40 39 39
42 43 42 42 41 40 40 40 39 37 36 36 35 35 35 35 35 36 37 38 38 38 39 39 39 40 41 41 42 42 42 43 43 42 42 42 43 43 44 44 45 46 45 44 43 42 41 40 38 38 38 39 39 39 39 39 39 39 39 38 38 38 39
43 41 38 36 34 34 34 34 33 32 32 33 34 34 35 35 35 36 36 36 36 36 38 39 40 42 43 43 44 44 44 44 44 44 44 44 44 45 46 46 47 46 45 45 44 43 41 40 39 38 38 38 38 38 38 38 39 39 39 38 39 40 41

ECMWFFLT1_500_spd_024.txt.gz
Wind_Speed
18 14 14 15 14 13 12 11 13 13 12 11 12 12 13 14 16 18 19 19 19 19 19 18 17 16 16 15 14 15 15 14 13 12 12 12 12 13 14 15 17 17 18 19 19 20 21 22 23 25 26 26 27 27 27 27 28 29 29 29 28 28 28
16 13 12 14 14 12 12 11 12 11 11 10 10 10 11 12 14 16 18 19 20 21 20 20 19 18 17 16 15 15 15 14 13 12 13 13 13 13 14 15 16 17 18 19 20 21 22 23 24 26 27 28 29 30 31 31 32 33 33 31 30 31 31
18 15 13 14 14 13 13 11 11 11 11 11 11 10 10 11 13 15 17 19 20 21 21 21 21 20 19 17 16 15 15 14 13 13 14 14 14 14 15 16 18 19 20 21 21 22 23 23 24 26 27 28 30 32 33 34 35 36 36 35 33 32 32
18 13 11 13 13 14 14 12 12 13 12 13 12 11 11 11 12 14 15 16 18 18 19 20 20 20 18 17 16 16 15 14 14 14 14 15 15 16 17 18 20 22 23 24 23 23 23 24 25 26 27 28 30 32 34 35 36 38 38 37 36 34 33
16 13 10 11 12 12 13 12 13 14 13 13 13 12 12 12 12 12 13 14 15 16 17 17 17 16 16 16 16 15 14 14 14 14 15 16 17 17 18 20 22 24 25 25 24 24 25 25 26 28 29 30 33 34 35 35 35 36 38 38 37 35 33
15 13 11 11 12 13 13 13 15 15 14 14 13 13 14 14 12 12 13 14 14 15 15 14 14 14 15 15 14 14 13 14 14 15 16 17 18 19 20 21 23 24 25 25 25 25 26 27 28 30 31 33 35 35 35 35 34 34 37 38 34 31 32
15 14 13 13 14 15 15 15 17 17 16 15 14 14 14 14 13 13 14 14 14 14 13 12 13 13 14 14 13 14 14 14 15 16 17 17 18 20 22 22 23 25 25 24 24 26 27 28 29 31 32 33 33 33 34 34 32 32 35 33 27 27 31
15 14 14 15 17 19 18 18 20 20 19 18 16 15 15 15 14 14 14 14 15 13 12 12 12 13 14 14 14 14 14 14 15 16 18 19 20 23 25 24 25 27 26 25 25 26 27 28 30 31 31 31 32 34 35 33 29 29 28 25 23 26 29
16 15 15 16 19 20 20 21 22 22 22 21 18 17 16 15 14 14 14 14 14 12 12 12 13 14 14 15 15 15 15 15 16 17 19 21 22 25 26 27 27 29 29 27 25 26 27 29 30 30 31 29 29 32 33 30 27 23 20 22 25 26 27
18 17 18 19 21 21 20 21 25 25 24 22 20 19 18 15 14 14 14 14 14 13 13 13 14 15 15 15 15 15 16 16 17 19 20 21 23 25 27 28 28 30 30 28 25 26 28 29 30 31 31 28 25 27 28 28 25 19 19 25 27 26 26
17 17 20 22 23 23 21 21 25 27 25 24 23 22 21 17 15 14 14 15 15 14 14 15 15 15 14 14 15 15 16 17 18 18 19 20 22 24 27 28 28 30 30 28 26 26 29 31 30 31 32 29 26 25 24 25 24 22 23 27 29 28 28
18 18 20 23 25 24 21 20 23 25 25 25 24 24 23 20 17 15 15 15 15 15 15 15 15 14 13 14 14 15 16 17 18 18 19 20 22 25 28 29 30 32 32 29 26 27 30 32 32 33 34 33 31 28 25 25 25 27 28 29 30 30 29
21 21 21 23 25 25 22 20 23 24 25 25 25 25 25 22 19 17 16 15 15 14 14 14 13 12 11 12 13 14 16 17 17 18 19 21 23 26 29 30 32 33 31 27 26 27 31 34 35 34 31 26 23 23 25 25 26 29 31 31 32 33 31
21 23 24 24 26 26 23 22 25 26 25 26 27 26 25 22 20 19 17 16 14 14 13 12 11 10 11 12 14 15 16 17 18 20 21 23 25 28 31 33 36 36 33 31 31 31 33 35 36 32 24 17 18 20 22 23 24 28 32 33 34 34 33
21 24 26 26 27 28 26 26 27 26 26 28 28 27 25 23 21 19 17 15 14 13 12 11 11 12 14 16 18 19 20 20 21 23 24 26 28 31 34 36 39 38 33 35 36 33 34 35 36 34 27 22 25 29 24 21 22 26 31 34 34 33 33
21 25 27 28 29 29 29 28 27 27 28 29 27 25 24 22 20 19 17 15 12 11 11 11 12 14 16 18 20 21 22 23 24 25 27 29 31 35 37 39 42 39 32 33 35 31 32 35 35 32 27 26 30 32 25 20 21 25 30 33 33 32 32
22 25 27 29 29 30 30 29 27 27 28 27 24 21 21 21 19 18 16 14 12 12 12 13 14 16 17 19 21 22 24 25 26 28 30 32 34 38 40 41 43 41 36 35 35 31 31 33 30 26 23 24 28 28 25 22 22 25 30 33 32 31 31
23 24 26 27 28 30 30 27 26 26 26 24 22 19 18 19 18 17 16 15 14 15 15 16 17 19 20 21 22 23 24 26 27 29 31 34 37 40 42 43 45 44 39 37 35 32 32 32 30 27 27 26 26 26 26 24 23 26 31 33 31 31 31
23 24 25 26 28 29 28 25 24 25 24 23 23 21 19 20 20 20 19 18 18 19 19 19 20 21 23 24 24 25 26 27 29 31 33 36 38 41 43 45 45 44 41 37 34 33 32 30 30 30 29 27 26 26 26 26 25 27 31 33 32 31 31
26 26 26 26 27 27 25 24 25 26 26 26 25 24 23 23 23 23 22 22 22 23 23 23 23 24 25 26 26 27 28 29 31 33 35 37 40 42 44 45 45 44 41 38 35 33 31 30 29 29 28 27 26 27 26 27 27 29 32 34 33 32 32
30 29 27 26 25 24 24 25 26 28 29 30 29 28 27 27 26 25 24 24 26 27 27 26 26 26 27 28 29 30 31 32 34 35 37 39 41 43 45 46 45 42 40 38 36 33 31 29 28 28 27 26 27 27 27 27 29 30 32 33 33 33 32
34 31 30 28 26 24 25 26 28 30 33 34 34 32 31 29 28 26 26 27 29 30 30 29 28 28 30 31 33 34 35 35 36 38 39 40 42 44 45 45 44 40 38 37 36 34 32 30 28 27 27 27 28 27 26 28 29 30 31 32 32 32 30
38 36 34 31 29 27 28 30 32 35 38 38 37 35 33 32 31 29 29 30 31 33 34 32 30 31 32 34 35 37 38 38 39 40 42 43 45 46 46 44 41 38 37 36 36 35 34 31 29 28 28 28 28 26 26 28 28 27 28 30 30 29 29
40 38 36 34 31 30 32 34 36 39 42 41 38 37 35 34 34 32 32 33 33 35 36 34 33 33 34 36 37 39 40 40 41 43 45 46 47 47 45 41 38 35 35 36 36 35 34 32 30 29 29 30 29 26 25 26 25 24 26 27 27 28 30
40 38 37 36 34 33 35 36 38 41 43 42 40 39 38 37 36 35 35 36 37 38 37 36 35 35 36 38 39 41 42 43 44 47 48 48 46 44 42 38 35 34 34 36 36 35 33 32 31 30 31 31 28 24 22 22 22 22 23 24 24 27 30
39 38 38 38 37 36 37 38 41 43 44 44 42 41 40 39 38 37 37 39 40 40 38 37 37 38 39 40 41 43 44 45 47 50 50 47 43 41 39 36 34 33 34 35 35 34 32 32 31 31 31 30 25 20 19 21 23 24 25 25 25 27 31
40 38 38 38 38 38 39 40 42 44 46 45 44 42 41 40 39 38 39 42 44 42 40 39 40 41 43 44 44 44 45 46 49 51 48 44 41 39 37 35 34 34 35 35 35 34 33 33 32 32 30 27 23 21 21 23 25 27 28 28 28 30 33
41 39 39 39 38 39 39 40 42 44 46 45 44 43 42 41 40 40 42 44 45 43 41 41 43 46 48 48 47 46 46 49 52 51 45 41 40 39 36 34 34 35 36 37 36 35 35 34 33 32 30 27 26 26 27 27 28 29 30 31 32 33 33
41 40 41 41 40 40 40 41 42 43 44 44 45 45 44 43 42 42 44 45 44 44 44 44 46 48 49 47 48 48 50 51 52 48 43 41 39 38 36 35 36 37 38 38 38 37 36 35 35 33 32 31 31 31 30 30 31 30 30 32 34 35 34
40 42 43 43 42 41 40 40 41 42 44 46 47 47 46 46 45 44 45 45 45 45 46 46 48 49 48 48 50 51 52 51 49 45 42 40 38 37 37 37 37 38 39 39 39 38 37 37 36 35 34 34 34 34 33 33 31 30 31 33 35 36 37
42 44 43 43 42 41 40 41 43 45 47 49 49 50 50 49 46 44 44 45 45 45 46 47 48 49 50 51 52 51 49 47 45 42 40 39 38 38 38 37 37 38 39 39 39 39 38 38 38 38 37 37 36 35 35 34 32 31 32 35 36 37 39
44 44 43 41 40 40 42 43 45 47 49 50 51 51 51 47 44 43 44 46 45 44 45 47 49 50 52 52 50 47 45 44 42 40 39 39 40 40 39 37 37 38 39 40 40 40 40 40 40 40 39 38 38 38 36 33 32 33 35 37 38 40 42
43 43 42 40 40 41 44 46 47 48 50 51 52 51 48 44 42 43 44 44 43 44 46 48 50 50 51 50 47 44 42 42 41 40 40 41 41 40 38 37 38 38 39 40 41 41 42 41 40 40 39 39 40 39 36 32 32 34 36 39 41 43 44
42 41 41 40 40 41 43 45 47 48 50 52 52 50 47 43 43 44 44 43 43 45 46 47 47 46 46 45 43 42 41 41 41 41 42 42 40 38 38 38 38 39 40 41 41 42 42 42 41 40 40 40 41 40 36 33 33 35 37 40 42 43 43
42 42 42 41 42 43 45 47 48 49 50 51 52 50 46 43 43 43 43 43 44 45 45 44 43 42 41 40 40 40 40 41 42 43 42 41 39 38 38 39 40 41 41 41 41 42 43 43 42 42 42 42 42 41 39 37 36 37 39 40 41 41 41
44 44 43 44 46 47 47 48 48 48 48 48 48 47 45 44 43 44 44 45 45 44 43 42 41 40 40 39 40 40 41 42 43 43 41 40 39 39 39 40 41 41 41 41 42 42 43 43 43 42 43 44 44 43 42 41 40 39 39 38 39 39 40
46 46 46 46 47 48 47 47 47 47 46 47 47 47 45 45 45 45 45 45 45 44 42 42 41 41 41 41 41 41 42 42 42 41 41 41 41 41 41 41 42 42 42 42 42 42 43 43 43 43 43 43 43 43 42 41 40 38 38 37 37 38 38
47 48 48 48 48 48 48 47 46 46 47 48 48 47 44 44 44 44 44 44 43 42 42 42 42 43 43 43 43 42 41 41 42 42 43 43 43 42 42 42 43 43 43 43 43 43 44 44 44 44 43 43 43 42 40 39 37 36 36 36 36 37 38

ECMWFFLT1_500_spd_027.txt.gz
Wind_Speed
22 23 19 12 9 12 14 15 16 15 15 15 16 16 16 15 16 17 18 19 20 21 20 20 19 19 19 18 17 15 15 16 16 16 16 15 15 14 13 13 14 14 15 16 17 18 19 20 21 22 22 22 23 24 25 26 28 29 30 31 31 30 30
19 20 17 10 7 10 12 13 15 14 13 13 13 13 12 12 13 14 15 17 18 19 20 19 19 19 20 19 18 17 17 17 17 17 16 16 16 15 14 14 15 16 17 18 19 20 21 22 24 24 23 22 23 25 26 27 29 30 32 32 32 32 32
21 18 15 10 8 11 12 13 14 13 12 12 12 11 10 10 10 11 12 13 14 16 16 17 19 20 21 21 20 20 19 19 18 17 17 16 16 15 14 14 15 17 18 19 20 21 22 22 24 24 23 23 24 26 27 29 31 31 32 33 33 33 32
22 19 17 14 13 13 14 15 14 12 11 11 12 12 11 10 10 10 10 11 12 13 14 16 19 21 22 22 22 21 21 20 19 18 17 17 16 15 14 15 16 17 19 19 20 20 21 22 23 23 23 23 24 27 28 30 32 32 31 33 35 34 32
25 22 20 17 17 16 14 14 13 11 12 12 13 13 12 12 11 10 9 10 11 12 13 16 18 19 20 21 22 22 21 20 18 18 17 17 16 16 15 16 17 18 19 20 21 21 22 23 23 23 22 22 25 28 29 30 33 33 32 34 36 34 32
25 24 21 19 20 18 15 13 12 12 13 14 15 14 14 13 12 11 10 10 11 12 14 14 15 17 18 19 20 20 20 18 17 17 17 16 16 16 17 17 18 19 21 22 22 22 23 23 24 24 23 24 26 28 28 30 34 35 33 34 35 33 30
25 24 23 21 20 20 19 17 14 14 15 17 17 16 15 14 14 13 11 10 11 13 14 14 14 15 16 17 17 17 17 17 16 17 16 16 17 17 18 19 19 21 23 23 23 23 23 23 24 26 27 26 27 28 29 30 33 34 32 31 34 33 29
24 25 24 22 21 21 22 21 19 18 18 19 19 17 16 16 15 15 12 11 11 12 14 15 15 15 15 15 15 15 16 16 16 16 16 16 17 18 19 20 20 22 23 23 24 24 25 25 25 27 28 26 27 29 30 31 32 32 28 27 31 32 29
25 24 25 24 23 23 24 24 24 21 19 20 20 18 18 17 17 16 14 12 11 11 13 15 14 15 15 14 15 15 15 15 16 17 17 17 17 19 21 22 21 22 23 23 24 25 27 26 25 26 28 28 30 31 32 32 33 32 27 24 28 32 32
28 22 25 25 23 24 24 24 24 20 17 19 21 20 19 19 19 18 17 13 11 11 13 14 13 14 14 14 15 15 15 15 16 17 17 18 19 20 22 22 20 20 22 24 25 26 27 26 25 26 29 32 34 34 33 32 31 30 28 26 29 34 35
29 23 27 26 22 23 24 23 22 17 14 18 23 22 21 21 21 20 19 15 11 12 13 13 13 14 14 15 15 15 15 16 17 18 18 19 20 21 22 21 18 18 22 25 26 26 27 25 25 26 29 32 34 33 31 27 24 21 19 24 30 35 37
33 27 28 25 23 25 25 23 22 19 17 19 24 23 21 22 22 21 20 16 13 13 13 14 15 15 16 16 16 16 16 17 17 17 18 18 18 19 20 20 17 17 22 26 28 28 28 26 26 26 28 30 31 31 30 28 24 19 20 24 30 34 37
37 33 30 26 25 26 25 24 23 22 21 22 24 24 21 22 22 22 21 18 15 14 14 15 17 17 17 17 16 15 15 15 15 16 16 16 17 18 19 19 19 20 23 27 30 31 31 30 28 27 28 28 29 31 30 28 27 28 31 32 33 34 36
37 37 34 29 28 26 26 26 25 24 24 24 25 24 22 22 22 22 21 20 17 15 15 17 18 17 18 17 15 14 14 15 16 16 17 17 18 19 20 20 21 23 26 28 31 32 33 32 31 30 30 29 29 30 28 25 25 27 32 33 33 34 35
34 37 36 33 30 29 28 28 27 27 26 26 26 24 23 23 23 23 23 21 19 16 16 17 17 17 17 16 15 15 15 16 16 16 17 17 18 19 21 21 22 25 27 29 32 34 34 34 33 32 32 31 29 29 29 27 26 26 28 30 32 33 33
34 36 38 37 34 32 31 30 29 29 27 28 28 26 24 23 23 23 24 22 19 17 16 15 15 15 16 16 16 16 16 16 16 16 17 18 19 20 21 22 24 26 29 31 33 35 36 36 35 34 34 33 31 30 31 31 29 27 28 30 32 33 33
38 37 39 40 37 35 34 32 31 30 28 29 29 27 26 24 24 24 24 22 19 18 17 15 14 15 17 17 17 16 16 17 17 18 19 20 22 23 24 25 27 29 31 33 35 38 38 38 37 35 35 34 32 30 32 33 31 30 31 32 33 33 34
41 38 37 38 39 39 36 33 32 31 29 29 29 28 27 25 25 25 23 20 18 18 18 16 16 18 19 19 18 17 18 18 19 19 21 23 24 26 27 28 29 32 34 36 38 41 42 41 39 37 35 34 32 31 32 32 30 31 33 32 33 34 36
39 36 37 37 40 41 38 33 32 31 30 30 29 28 28 26 25 24 21 19 18 19 18 18 19 20 21 19 18 18 20 20 21 22 24 26 27 29 30 30 31 34 36 39 41 44 45 44 41 37 35 33 31 31 32 30 29 31 33 33 33 35 37
38 37 40 41 41 40 37 32 31 32 31 30 30 30 30 28 26 24 22 20 19 19 18 19 20 22 22 21 20 21 23 23 24 25 26 28 30 31 33 33 34 36 39 42 44 46 46 44 40 37 35 32 31 31 32 31 30 31 32 32 34 37 38
39 39 42 43 41 37 32 29 30 31 31 31 31 32 31 30 28 26 24 21 21 20 19 20 22 24 25 25 24 25 26 27 28 28 30 31 33 34 36 36 37 39 42 44 46 48 46 41 37 34 33 32 31 31 32 32 31 31 32 33 36 38 38
41 40 43 44 41 34 28 26 29 31 32 32 33 33 33 32 30 28 25 24 23 22 22 23 24 26 29 29 29 28 28 29 30 31 33 35 36 37 38 39 40 42 43 46 49 49 44 38 34 32 31 31 31 31 32 32 30 30 32 35 36 37 36
46 43 44 45 41 32 26 28 32 33 33 34 34 35 35 33 32 30 28 27 26 25 25 26 27 29 31 32 33 31 30 31 32 33 35 37 39 40 41 43 43 44 45 48 51 49 42 36 33 31 29 30 31 30 31 31 30 30 32 34 34 33 31
48 47 46 44 39 33 30 31 34 34 34 34 36 36 35 35 34 32 30 30 28 28 29 29 31 32 33 35 36 35 34 33 34 35 37 40 41 43 46 47 46 46 48 50 52 48 41 37 34 31 29 30 31 31 30 30 30 30 30 31 30 28 27
45 47 45 42 38 36 35 35 36 35 35 35 36 37 37 38 36 34 33 33 32 31 32 33 34 35 36 37 39 39 37 35 36 38 39 41 43 46 49 49 47 48 51 53 51 46 40 37 35 32 31 31 31 32 32 31 31 30 27 27 26 26 27
41 42 43 42 41 39 39 40 39 37 36 36 37 38 39 39 37 36 37 37 36 36 36 37 38 38 39 40 42 42 41 39 39 40 41 43 46 48 49 48 47 50 53 53 49 44 39 37 36 35 34 33 33 33 33 32 31 29 26 25 27 29 29
40 42 44 45 45 43 43 42 40 39 39 39 39 39 40 40 40 40 40 40 40 40 40 40 41 41 42 43 44 44 43 42 42 43 44 45 48 48 48 49 50 52 54 52 47 42 38 37 37 37 36 35 35 35 35 33 32 30 26 27 30 32 31
39 43 45 47 47 47 46 45 43 42 41 40 40 41 42 42 43 43 42 43 44 44 43 44 45 45 46 46 46 46 44 43 44 46 47 48 48 48 49 51 52 53 52 48 44 40 37 37 38 38 36 36 36 36 37 35 32 29 27 28 31 32 32
37 41 43 45 47 49 49 48 46 44 43 43 43 42 43 44 46 46 45 45 45 46 47 48 49 49 49 49 49 46 44 44 46 48 49 49 49 49 50 52 53 52 49 45 42 39 39 39 40 38 37 37 36 37 39 37 30 26 27 29 31 32 33
35 37 40 43 47 50 51 49 47 45 45 45 44 43 43 44 46 47 47 48 48 49 51 52 53 54 54 53 52 47 43 44 47 49 49 49 49 50 52 54 53 50 47 44 42 41 41 41 40 39 38 38 37 38 39 36 29 26 29 31 33 33 33
33 34 38 41 45 48 49 48 47 46 44 43 42 42 43 44 45 47 49 50 51 52 54 55 57 57 56 56 53 46 42 44 47 48 48 49 50 51 53 54 52 48 46 44 42 42 42 41 41 40 39 39 39 39 38 34 30 30 32 33 34 34 33
34 35 36 39 42 45 47 48 47 45 44 43 43 43 43 44 46 47 49 51 52 54 56 58 59 57 56 56 53 47 44 45 46 47 47 49 50 51 52 52 50 48 45 44 43 43 43 41 41 41 41 41 40 39 37 34 32 32 33 35 35 34 33
37 36 37 39 41 44 46 47 47 47 46 45 45 45 44 45 46 48 50 52 53 55 57 58 58 57 56 55 52 47 45 45 46 47 48 49 50 51 51 51 50 47 46 45 44 43 41 40 41 43 42 42 41 39 36 34 33 34 35 36 36 35 34
38 37 38 39 40 43 45 46 47 48 47 47 47 46 46 46 48 50 52 53 53 54 56 58 59 59 58 56 52 47 46 46 47 48 48 49 50 50 50 50 49 47 46 46 44 42 40 41 43 44 44 42 40 37 34 33 34 36 36 36 37 37 36
37 37 37 38 39 41 43 44 46 48 48 47 47 47 47 48 49 51 52 53 53 54 55 57 58 58 57 55 52 49 47 47 48 48 49 49 50 50 49 49 49 48 47 46 44 42 42 42 44 45 44 43 40 38 35 35 37 38 38 38 38 38 37
37 38 39 40 41 42 43 44 46 47 48 48 48 48 48 49 50 51 52 53 53 54 56 57 57 57 56 53 51 49 48 48 49 50 50 50 50 50 49 50 50 49 47 46 45 44 43 43 44 44 44 44 43 43 41 41 41 41 42 42 41 40 39
38 40 41 43 44 45 45 46 47 47 47 48 49 49 49 48 49 50 51 52 53 54 57 58 57 57 56 53 50 49 48 49 50 50 49 49 50 50 50 51 50 49 47 46 46 45 44 43 43 43 42 42 43 43 42 42 43 43 44 44 43 41 39
41 42 43 44 45 46 47 48 47 47 48 48 48 48 47 47 48 49 50 51 53 54 56 57 57 56 55 54 50 48 48 49 50 49 48 48 50 51 51 50 49 48 47 46 46 45 44 43 43 42 42 41 40 39 39 41 42 43 43 43 42 40 38

ECMWFFLT1_500_spd_030.txt.gz
Wind_Speed
21 22 23 23 22 18 15 15 17 15 12 8 7 9 12 14 16 18 19 20 21 21 21 20 20 21 20 20 20 19 19 18 18 18 17 16 16 16 16 16 15 15 15 15 16 16 16 16 17 18 19 21 22 23 23 24 24 26 27 28 29 31 33
21 20 20 22 22 18 15 15 16 14 11 8 6 6 8 10 11 14 16 18 20 21 21 21 21 21 21 21 20 20 19 19 19 19 18 17 17 17 16 16 16 16 16 16 17 17 17 17 17 18 20 21 22 23 24 25 26 27 28 29 30 32 33
22 19 17 19 19 18 18 16 15 13 11 8 5 4 5 7 9 10 12 14 16 17 19 20 20 21 22 22 21 21 21 21 20 20 20 19 18 17 17 17 17 17 16 16 16 16 17 18 19 20 21 23 23 23 23 24 25 27 27 28 31 32 33
23 20 18 19 19 20 21 20 17 14 11 7 5 5 5 7 8 8 9 10 12 13 15 17 18 20 21 21 22 22 22 22 22 22 22 20 18 18 17 17 17 17 17 16 15 16 18 19 20 22 22 24 25 24 24 25 26 27 28 29 31 32 33
25 23 19 19 19 21 22 21 18 15 11 9 7 7 7 8 9 8 8 9 10 12 13 15 17 17 19 20 21 21 22 22 22 23 22 20 18 18 17 17 17 17 16 16 16 17 18 19 20 22 23 24 26 26 27 27 26 27 28 30 31 33 34
27 24 17 17 19 23 24 21 19 16 14 12 10 10 10 10 9 8 8 8 9 11 12 13 14 15 16 17 18 19 19 20 21 21 20 18 18 17 16 16 16 16 16 16 17 17 18 19 19 21 23 24 26 27 28 28 28 29 30 31 32 33 33
30 31 23 21 22 24 27 24 22 20 18 15 13 13 13 11 9 8 9 9 9 10 11 12 13 14 15 15 16 16 16 16 17 17 17 16 15 15 16 16 15 15 15 16 16 17 17 19 19 21 23 24 25 26 28 30 31 32 32 31 31 32 32
33 35 29 27 27 28 29 26 24 22 20 17 15 13 13 12 10 8 9 10 10 10 10 12 13 13 14 14 14 13 13 13 13 13 13 13 13 14 15 16 15 15 16 17 17 16 18 19 20 21 22 24 25 26 27 30 31 32 32 31 30 31 29
32 31 28 29 30 30 29 26 24 25 22 17 14 14 14 14 12 9 10 12 12 10 11 12 13 13 14 14 13 13 12 12 12 12 12 12 13 14 15 16 16 16 17 18 17 17 18 19 21 22 23 24 26 27 28 30 31 31 31 31 30 29 26
26 26 29 33 31 28 28 27 26 27 25 18 13 14 15 16 14 11 11 13 13 12 12 13 13 12 12 13 13 13 12 11 12 12 12 13 13 14 14 16 16 16 17 17 17 18 19 21 23 24 25 26 28 29 29 30 31 30 31 31 30 28 25
29 31 34 35 29 25 27 27 26 27 26 19 14 13 14 16 17 14 13 14 14 15 14 13 13 11 11 13 13 12 12 12 12 13 13 13 13 13 14 14 14 14 16 18 18 19 21 23 25 26 27 29 30 31 31 32 32 30 30 31 30 27 27
34 36 37 33 26 25 28 28 28 27 25 20 16 14 14 16 19 17 15 15 15 16 15 14 13 12 12 14 13 12 12 13 13 13 14 13 12 12 13 13 14 14 16 19 21 21 22 24 26 27 29 31 33 35 34 35 35 32 31 31 30 28 28
34 35 38 35 27 27 30 31 31 29 26 23 19 17 16 17 20 19 17 16 17 17 16 15 14 13 13 14 13 13 13 14 14 14 14 13 11 11 13 15 15 15 17 19 22 23 23 24 26 28 29 32 35 37 38 38 38 35 32 32 32 30 30
36 37 38 34 30 31 33 34 33 31 29 26 23 20 18 19 21 20 18 18 18 18 17 17 15 13 14 15 14 13 15 16 15 14 12 11 11 12 14 16 17 17 17 18 20 23 24 25 26 28 30 34 37 39 39 40 40 37 34 33 33 33 32
42 43 40 33 31 33 35 36 36 35 33 29 25 24 22 21 22 21 19 18 19 19 18 18 17 15 14 15 15 14 16 16 15 13 12 12 12 13 14 15 16 17 17 18 20 23 25 26 28 30 33 36 39 40 41 40 40 38 36 35 34 34 34
40 42 43 39 35 35 36 39 40 39 36 33 29 26 25 24 23 21 20 19 19 20 19 19 18 16 14 15 16 16 17 16 15 13 13 13 13 13 14 15 16 18 20 21 23 26 28 30 32 34 36 39 41 43 42 41 40 39 38 36 34 33 33
37 36 38 37 36 37 40 42 43 41 38 36 33 29 27 26 25 23 21 20 20 21 21 19 18 17 16 16 17 17 17 17 16 15 15 15 14 14 15 16 18 20 23 25 27 29 31 33 35 37 39 41 42 43 43 41 40 39 38 36 34 32 32
38 36 34 35 36 38 41 42 43 42 40 38 37 33 29 28 27 25 23 21 21 22 22 21 19 18 18 18 18 18 18 18 17 16 16 16 15 16 18 19 22 24 26 28 30 32 33 35 38 40 42 43 43 43 42 40 39 37 37 36 34 32 33
39 38 38 39 38 38 41 42 43 43 42 41 39 35 31 30 28 25 23 22 22 23 24 22 20 19 19 19 18 18 18 19 18 17 16 17 19 20 22 23 25 27 28 31 33 34 36 38 41 43 45 46 47 45 42 39 37 36 37 37 35 33 34
38 39 42 44 41 37 39 41 43 45 44 42 40 36 34 33 30 26 25 25 24 24 25 23 20 19 20 20 20 20 20 20 18 17 18 19 21 23 24 26 27 29 30 32 35 36 37 39 42 44 45 47 49 48 44 39 36 36 37 37 35 34 33
35 37 41 44 44 41 37 37 40 43 44 43 42 38 37 36 32 28 27 27 25 25 26 23 19 18 19 20 20 20 20 20 19 19 20 21 23 24 26 27 29 31 32 34 36 38 38 40 43 44 45 47 49 49 45 40 37 36 37 37 34 33 32
43 44 45 45 46 45 42 37 34 36 40 44 44 41 39 39 36 31 28 28 27 27 28 25 20 20 20 20 20 20 21 21 22 23 23 24 25 26 27 29 31 32 34 36 38 39 41 43 44 45 47 48 49 48 45 41 38 36 37 38 36 34 33
53 53 55 54 52 50 50 47 40 35 38 43 44 42 42 43 40 34 29 29 29 30 30 26 23 22 21 21 21 22 23 24 25 26 28 29 29 29 29 31 32 34 36 38 40 41 43 45 45 47 49 50 49 48 45 42 40 38 38 40 39 37 35
59 59 60 60 59 57 56 55 50 43 41 43 44 43 44 47 44 37 31 31 32 32 30 28 26 25 23 22 24 25 26 28 28 30 32 33 33 33 33 33 35 37 38 40 42 43 45 46 47 48 50 51 50 48 44 42 40 39 39 40 39 37 35
54 58 59 59 57 54 54 56 53 47 44 44 44 44 45 48 47 40 33 32 33 33 31 29 28 27 26 26 27 28 30 32 33 34 34 35 37 37 37 37 38 40 40 42 43 44 46 48 49 49 51 52 51 47 44 42 41 40 40 39 37 36 35
40 48 54 54 48 45 51 57 53 46 44 43 43 44 46 48 49 43 35 34 35 34 32 32 31 30 30 30 30 31 34 36 37 37 37 38 40 40 40 41 42 42 43 43 44 46 48 50 50 50 52 52 51 48 44 42 42 41 40 37 36 35 34
36 41 47 47 41 41 50 56 49 43 44 44 44 46 49 50 49 43 37 36 36 35 34 34 33 33 34 34 35 36 37 39 40 41 40 41 43 43 43 44 45 45 45 45 45 47 49 50 50 51 51 50 50 48 45 43 43 41 38 36 35 34 35
37 39 41 42 41 44 49 48 41 39 44 45 46 49 50 50 48 43 39 38 37 37 36 36 34 35 37 37 39 40 41 42 44 44 43 45 46 46 46 46 46 46 47 47 47 48 49 50 50 50 49 49 48 47 45 44 42 39 36 35 35 35 36
40 42 43 43 44 47 47 42 36 38 44 47 49 50 50 49 46 43 40 39 39 39 38 36 36 37 39 40 42 43 44 45 46 46 47 49 50 51 51 50 48 48 48 48 47 47 48 49 50 50 49 49 48 46 45 44 41 38 36 36 37 38 37
41 44 46 44 42 43 43 40 39 43 47 49 51 51 49 47 45 43 41 41 41 40 39 38 38 40 42 43 43 44 46 47 47 48 50 52 54 56 56 53 49 47 47 48 47 47 48 49 49 50 49 49 48 46 45 43 41 39 38 39 39 38 36
37 42 44 42 41 43 44 42 44 49 51 52 52 51 49 47 45 44 43 42 41 40 39 40 42 43 44 44 45 46 48 49 50 50 52 55 59 61 59 54 49 47 47 47 47 47 48 49 50 50 50 49 48 46 45 44 42 41 41 41 41 39 37
38 43 44 42 44 47 47 47 50 54 55 54 53 51 50 48 47 45 44 42 40 39 40 43 44 45 46 46 47 49 50 51 52 53 55 58 60 59 57 54 49 45 45 47 47 47 48 50 51 51 50 49 48 46 45 44 43 43 44 43 42 41 39
39 45 47 46 47 50 50 51 54 56 56 55 54 52 51 49 46 44 43 42 42 43 44 45 46 46 47 48 48 50 51 53 54 56 57 57 55 55 56 55 50 45 44 48 48 48 50 51 51 51 50 49 47 46 44 44 44 44 44 44 43 43 41
41 46 48 48 50 53 51 50 52 55 55 55 54 52 51 49 47 45 45 45 46 46 46 46 46 46 47 48 49 51 53 54 55 56 55 54 53 54 56 56 53 50 49 50 50 50 51 53 52 50 49 48 47 45 45 45 45 44 44 44 45 45 44
42 45 46 48 52 54 51 49 49 49 50 52 53 52 51 50 50 49 48 47 47 46 46 46 46 46 47 48 50 52 53 54 55 55 54 54 55 56 57 57 56 54 53 52 51 51 53 52 51 50 49 48 46 45 45 45 45 45 44 45 46 46 46
45 47 46 49 53 52 48 45 43 41 41 45 49 51 52 52 52 51 50 48 47 47 47 47 47 47 48 49 51 52 53 54 55 54 54 55 56 57 59 59 58 56 55 53 53 53 52 51 50 49 48 47 46 46 46 45 45 45 45 46 46 46 46
45 48 47 47 49 48 42 38 36 35 37 40 43 46 48 49 50 50 49 49 48 48 48 48 49 49 49 50 51 53 54 54 53 52 53 55 58 59 61 61 60 58 55 53 52 52 51 49 49 48 47 47 47 47 46 45 45 45 46 47 47 47 46
29 32 33 34 35 36 35 34 35 37 38 39 40 42 44 45 47 49 49 49 49 50 50 50 51 51 51 52 54 55 54 51 50 51 54 57 59 60 62 62 60 57 53 50 49 49 49 49 49 48 47 47 46 46 46 45 45 46 46 47 47 46 46

ECMWFFLT1_500_spd_033.txt.gz
Wind_Speed
23 22 21 21 19 18 18 18 17 16 14 14 15 16 18 19 20 20 20 22 22 21 19 18 18 18 18 18 18 18 17 17 16 17 17 16 16 16 14 13 13 13 12 12 12 13 13 14 14 14 15 17 18 19 20 21 21 21 22 23 23 25 26
21 22 21 20 18 18 18 19 18 17 16 15 15 16 17 17 18 18 19 20 21 21 19 19 19 19 20 21 21 20 19 19 18 18 18 18 18 17 15 14 13 13 12 12 13 13 14 14 16 16 17 18 19 20 21 22 22 22 22 24 25 27 27
19 22 22 21 19 18 18 19 19 18 18 18 16 16 16 16 17 16 16 17 18 19 18 18 19 20 21 22 22 22 21 21 20 20 20 19 19 18 16 15 14 13 12 12 13 13 14 14 15 17 19 20 20 21 21 22 23 22 22 24 26 28 29
20 23 24 22 19 17 16 18 20 20 21 20 18 17 17 17 16 15 14 15 16 17 17 18 19 20 21 22 22 23 23 22 22 22 21 21 20 19 17 15 14 12 11 12 13 14 14 14 15 17 19 19 20 20 21 22 23 23 23 25 26 28 30
20 21 24 21 18 16 14 16 20 22 23 22 20 20 19 19 18 16 14 14 14 14 15 15 16 17 18 19 20 21 22 22 22 22 22 21 20 18 17 15 13 11 11 12 13 14 15 15 16 16 17 18 19 19 20 22 24 25 26 27 27 28 29
19 19 21 19 17 18 15 15 17 20 22 22 22 22 21 20 19 17 15 14 13 13 12 12 13 14 15 16 17 18 19 19 19 20 20 20 18 17 16 14 11 10 10 11 13 14 15 16 17 16 17 18 18 20 21 23 24 26 28 29 29 29 29
21 20 21 19 18 19 17 15 16 18 21 22 22 23 23 21 19 18 16 14 12 12 11 10 11 12 13 14 15 15 16 16 16 17 17 16 15 15 14 12 9 9 10 11 13 14 15 16 17 18 18 19 20 21 23 24 25 27 28 29 30 30 30
29 27 22 20 20 18 16 16 16 17 20 23 23 23 23 23 20 18 16 13 12 11 10 10 10 11 11 12 13 13 13 13 13 13 13 12 12 12 11 9 8 8 9 11 13 14 14 16 17 19 19 20 22 23 24 26 27 29 30 31 32 32 32
34 30 24 22 23 20 17 17 18 19 20 23 25 24 24 23 20 18 17 15 13 11 10 10 10 10 11 11 12 13 13 12 11 10 10 10 10 10 9 8 7 8 9 12 14 15 16 16 17 19 20 22 23 23 24 26 29 32 34 35 36 35 35
33 28 28 28 27 24 21 20 22 23 21 22 27 25 22 21 20 18 17 16 14 12 10 10 10 10 11 11 11 12 12 12 10 9 9 9 10 9 8 8 8 8 10 12 14 15 16 17 18 20 21 22 22 23 24 27 31 34 36 37 38 38 37
29 27 31 32 28 25 24 24 25 24 21 22 27 26 23 22 21 19 18 16 14 13 12 11 10 10 11 11 12 12 12 11 10 10 10 10 10 9 9 8 9 10 11 12 13 15 16 17 19 20 21 21 22 23 26 28 31 34 36 37 38 38 37
27 29 31 30 27 26 26 26 27 25 23 23 27 29 27 24 22 21 20 18 16 15 14 13 10 10 11 12 13 13 13 12 11 11 11 11 11 10 9 9 10 10 12 13 14 15 16 17 18 18 19 19 21 24 27 29 31 34 37 38 38 38 36
29 28 28 28 27 27 27 27 28 28 27 26 27 31 30 27 25 25 23 20 18 17 16 15 12 10 10 12 14 14 14 13 12 12 12 12 11 10 9 9 10 11 13 14 16 16 16 16 16 17 18 20 22 25 28 30 32 35 38 39 39 38 36
27 26 27 29 28 27 26 27 30 31 31 30 29 31 32 30 28 27 25 23 21 19 18 16 14 12 11 12 14 15 15 14 14 14 13 12 11 10 10 10 11 12 13 15 16 16 14 14 16 17 19 21 24 27 30 32 33 35 38 40 40 39 36
27 25 26 29 29 29 31 32 34 36 36 34 31 31 31 30 28 27 27 25 23 21 20 18 17 14 12 12 13 15 16 16 16 15 13 12 11 11 11 12 12 12 12 14 14 14 15 16 18 20 21 24 26 30 32 34 34 36 39 40 40 39 36
31 28 27 29 30 33 37 38 38 39 37 36 34 31 30 29 27 28 29 27 25 23 22 20 18 16 13 12 14 17 18 18 16 14 12 12 12 12 12 12 13 12 12 12 13 15 17 19 20 22 24 26 28 30 32 34 35 37 40 41 40 39 36
35 35 33 34 37 40 42 42 41 40 37 36 36 34 32 30 30 30 31 30 27 25 24 22 20 17 15 13 15 18 19 18 17 14 13 14 14 14 14 14 14 13 13 13 15 18 19 21 22 24 25 27 29 31 32 34 36 38 40 42 41 40 36
38 40 41 42 43 44 44 44 43 41 37 35 37 38 35 33 33 33 32 31 29 27 27 25 22 19 17 16 17 20 20 18 17 15 15 15 15 16 16 16 15 15 16 17 18 20 21 23 25 26 27 28 30 32 34 34 36 39 41 43 43 40 36
41 43 44 45 45 44 44 45 45 43 41 39 39 40 38 35 35 34 33 31 31 30 29 28 24 21 19 18 18 20 20 19 17 17 16 16 17 18 17 17 16 17 18 19 20 22 24 25 27 28 29 31 32 34 35 35 37 40 42 44 43 40 36
41 44 46 46 45 46 46 48 48 47 47 46 44 42 40 37 36 36 35 34 33 32 31 30 28 24 22 21 19 20 21 20 18 17 17 17 18 18 18 17 17 18 19 21 22 24 26 28 29 31 32 33 34 35 36 37 39 41 43 44 44 41 37
39 40 43 44 44 44 44 45 48 48 47 45 43 42 41 40 39 39 38 37 36 34 32 31 30 27 25 24 21 20 21 21 19 18 18 19 20 19 18 18 19 19 20 22 23 25 27 30 32 33 34 35 36 38 39 40 41 43 44 44 44 42 39
40 39 40 42 45 44 41 42 45 45 43 40 39 39 41 42 41 42 41 38 37 36 34 33 32 29 28 26 23 21 21 21 20 20 20 21 20 20 20 20 20 21 22 24 26 28 30 32 34 36 37 37 38 40 41 42 43 44 44 45 45 43 40
46 44 41 41 44 44 42 43 45 44 42 41 40 40 43 45 45 45 44 40 38 37 36 35 33 32 30 27 25 23 22 21 21 21 21 21 20 21 22 22 22 24 25 27 29 31 33 34 36 38 39 39 41 42 43 44 45 44 44 46 46 44 41
54 51 46 43 46 47 46 47 48 47 46 44 43 43 44 46 47 47 45 42 39 39 39 37 36 34 33 29 27 26 24 23 23 22 21 21 21 23 24 24 25 26 28 30 32 34 36 37 39 40 41 41 43 44 45 46 45 43 43 46 46 44 41
55 55 54 49 48 50 51 51 52 53 51 47 45 44 45 47 48 47 45 42 41 40 40 40 39 37 36 33 30 29 28 26 24 23 23 23 24 26 27 26 27 29 31 33 35 37 39 41 42 43 44 45 45 46 46 47 46 43 43 45 45 43 41
45 49 56 58 56 55 56 56 56 59 59 54 47 44 44 44 44 43 42 42 43 42 40 41 41 40 39 36 33 32 31 28 26 25 24 26 28 30 30 30 31 32 34 35 37 39 42 44 45 46 46 48 49 49 48 47 45 44 45 45 44 43 41
40 41 47 57 63 64 62 60 60 64 66 60 54 50 48 47 46 45 45 46 48 46 42 42 42 43 43 39 36 35 33 31 29 27 26 28 31 32 33 34 36 37 37 38 40 42 44 46 48 48 49 53 55 51 48 47 46 45 46 45 44 43 41
43 42 41 44 54 66 70 66 65 67 68 65 61 59 58 56 54 52 53 53 53 50 47 46 44 46 46 41 37 37 35 32 30 29 29 31 33 34 35 37 39 40 40 41 43 44 46 49 50 49 52 56 53 47 44 45 46 46 47 46 44 43 42
46 46 44 40 41 54 68 72 69 68 68 68 67 64 63 61 58 55 55 54 54 52 51 50 47 46 46 43 39 39 36 33 31 31 32 35 35 36 38 40 41 42 42 43 44 47 49 51 49 49 50 51 45 40 41 45 46 47 48 47 45 44 43
51 48 47 44 39 42 55 69 74 73 71 70 69 68 65 61 60 59 55 52 53 54 51 50 49 48 47 44 41 40 37 33 33 34 36 37 38 38 40 42 43 43 43 44 46 49 50 48 47 48 49 48 44 41 43 46 47 48 49 47 45 45 44
56 53 50 49 45 42 45 57 70 76 76 74 73 70 66 60 58 58 54 50 53 54 52 51 51 49 47 45 43 41 38 34 35 38 40 40 40 41 42 43 43 43 44 46 49 50 49 46 46 48 50 49 48 47 47 48 48 49 49 47 45 45 44
59 58 56 53 52 50 48 50 56 63 65 65 64 63 61 57 55 54 52 51 54 54 51 51 52 50 48 46 43 40 37 37 39 42 43 42 43 43 43 43 43 44 47 48 50 50 48 47 48 49 49 51 51 51 51 51 50 49 47 45 44 44 44
58 61 61 59 56 56 55 53 54 58 58 55 54 56 57 56 55 55 54 53 55 55 52 51 53 52 49 45 42 40 39 40 42 43 42 43 43 43 43 44 45 46 49 50 50 50 49 48 49 50 50 53 54 54 55 53 49 46 45 43 43 43 43
53 56 60 60 58 57 56 53 55 60 60 53 48 50 55 56 55 54 55 55 55 53 51 51 52 52 49 45 42 42 42 42 42 42 42 42 43 43 45 46 47 48 50 50 50 51 50 49 50 51 53 54 55 56 56 50 43 42 43 42 43 43 43
51 51 53 55 56 57 57 54 54 58 57 49 44 46 54 59 56 50 49 53 56 53 48 50 51 48 45 44 43 43 41 40 40 41 42 43 44 45 46 47 48 49 50 51 52 53 52 51 52 53 55 56 58 58 53 45 40 41 42 42 43 42 41
51 48 47 48 51 54 56 56 55 54 52 49 47 47 53 60 60 52 45 47 53 54 51 51 51 47 43 42 42 41 40 39 40 42 43 45 45 46 47 49 50 50 50 52 54 53 52 52 53 54 57 60 61 55 47 41 40 42 42 42 41 41 41
48 46 44 44 47 50 52 54 55 56 57 56 51 47 49 55 58 55 47 43 46 50 50 48 45 41 40 41 40 39 39 40 41 44 45 46 46 47 49 50 50 50 52 53 52 49 49 51 53 54 56 56 51 43 38 38 41 42 42 41 40 41 42
46 45 43 43 44 45 47 52 56 59 61 59 52 46 45 48 52 52 48 43 41 42 41 39 35 34 37 40 40 40 41 42 44 46 46 47 48 48 49 50 52 53 54 52 48 46 48 51 54 54 53 48 41 36 37 39 40 41 41 41 41 42 42

ECMWFFLT1_500_spd_036.txt.gz
Wind_Speed
20 21 20 20 20 21 21 21 20 20 20 19 18 20 20 20 19 18 18 19 20 20 21 21 20 19 19 20 20 19 18 18 17 16 15 14 14 14 13 13 12 12 12 12 12 11 10 11 12 11 10 10 11 13 15 16 17 17 17 18 19 20 22
19 20 22 22 21 22 24 23 22 23 22 21 21 22 21 20 19 18 18 19 20 21 21 22 22 21 20 21 22 22 21 21 20 18 17 16 16 15 15 14 14 13 13 13 13 12 11 11 11 12 12 11 11 13 14 15 16 16 17 19 20 22 24
17 17 21 24 23 23 23 23 24 25 23 22 23 22 20 19 19 18 19 19 19 20 20 21 22 22 22 23 23 23 23 23 22 21 20 19 19 18 16 15 15 14 14 13 13 12 12 11 11 12 12 12 12 13 13 14 16 17 19 21 22 24 25
16 14 17 23 24 23 22 23 25 24 23 22 23 22 20 19 19 18 18 18 18 19 19 21 23 24 25 24 24 24 25 24 24 23 23 22 21 20 18 16 16 15 14 14 13 12 12 12 11 11 12 12 13 13 13 14 16 18 20 22 24 25 26
14 14 15 19 21 21 22 24 25 23 21 22 24 23 20 19 18 17 17 18 18 19 20 21 23 24 25 25 25 25 26 25 25 24 24 24 23 22 20 18 18 16 15 14 13 12 13 12 11 11 12 13 14 13 14 15 18 20 22 23 24 25 26
12 14 13 16 18 20 22 24 24 23 22 24 24 22 20 18 17 16 17 18 19 20 20 21 21 22 24 24 25 25 26 25 25 25 25 25 24 23 22 20 18 16 16 15 13 13 13 12 11 12 13 14 15 15 16 17 19 21 22 23 24 26 27
13 15 13 13 15 17 21 23 23 22 23 24 24 22 20 18 16 16 17 18 19 20 20 20 20 21 22 23 24 24 24 23 23 23 23 23 23 22 22 20 18 16 16 15 14 13 13 12 12 13 14 14 15 16 18 19 20 21 22 24 26 27 29
15 15 13 13 13 13 18 21 22 23 24 25 24 22 19 17 16 16 16 17 19 19 19 19 20 21 21 22 22 22 22 22 21 21 20 20 20 20 20 19 18 16 15 15 15 14 13 12 12 13 14 14 15 17 19 20 20 20 22 25 27 29 30
17 18 16 16 16 14 17 22 24 24 25 26 24 20 18 17 18 16 16 17 18 18 18 18 19 21 21 21 21 21 21 20 20 19 18 19 19 19 19 19 17 16 16 16 15 14 13 12 13 14 14 14 15 17 18 19 20 22 24 26 27 29 30
19 20 20 20 20 18 18 23 27 27 28 27 23 19 16 17 18 18 17 17 18 17 17 18 19 20 20 20 20 20 19 18 18 17 17 18 18 18 18 18 17 17 17 16 15 15 13 12 13 13 14 15 15 16 17 18 21 23 25 27 28 29 30
19 20 22 22 24 23 22 25 30 30 29 27 23 18 15 16 19 20 19 18 18 18 18 18 19 19 19 20 20 19 18 18 17 17 17 18 18 18 18 18 17 17 17 16 16 15 14 13 13 14 14 15 15 15 17 19 21 23 25 27 28 29 30
21 22 24 26 26 26 24 26 32 33 31 27 23 19 17 18 20 21 21 20 20 20 20 20 20 20 20 20 20 19 19 18 17 17 18 20 19 18 18 18 18 18 17 17 16 15 14 14 14 14 15 14 14 16 17 19 21 23 25 27 28 29 30
22 23 25 28 28 26 24 24 29 33 32 29 26 22 20 21 22 23 25 23 22 21 21 21 21 21 21 21 20 20 20 19 19 19 21 21 21 20 19 19 19 18 18 17 16 14 14 14 14 14 14 14 15 16 18 19 21 22 25 27 28 29 31
28 27 26 26 27 26 26 24 26 31 32 30 28 25 23 22 23 25 27 26 24 24 23 23 22 22 21 21 21 20 21 21 21 22 23 23 23 22 21 20 19 19 19 17 15 15 15 15 14 14 14 14 15 17 18 20 21 22 25 27 29 31 32
32 29 26 27 28 28 28 26 27 33 33 31 30 28 26 25 24 25 28 29 28 26 25 25 24 23 21 21 22 21 21 23 23 24 25 25 24 23 22 21 20 20 18 16 16 17 16 15 14 14 15 15 16 18 19 21 22 24 26 28 30 32 33
28 25 26 28 28 27 28 27 29 34 35 33 33 32 29 27 25 24 26 30 31 29 27 27 26 24 22 21 22 23 23 24 24 25 25 25 24 24 23 22 21 20 18 17 17 17 16 15 15 15 16 17 17 19 20 22 23 25 28 29 31 33 34
25 26 27 26 25 26 27 27 30 35 36 35 35 33 30 28 26 25 25 28 31 31 29 28 27 25 23 22 22 24 26 26 25 25 25 24 25 25 25 24 22 20 19 19 18 17 17 16 15 16 17 17 18 20 21 23 25 27 29 31 33 35 36
29 33 31 27 27 30 30 30 33 36 37 37 35 33 31 30 28 27 27 27 29 30 29 29 28 27 25 24 25 26 27 27 26 25 24 25 26 26 26 25 23 21 20 19 19 18 17 16 16 17 17 18 20 22 23 25 27 29 32 34 36 37 37
36 40 40 37 34 32 31 33 35 37 37 37 36 34 33 33 32 30 29 28 28 30 31 31 30 29 28 28 28 27 28 29 28 26 24 24 26 28 28 26 24 22 21 20 21 20 18 17 17 17 18 19 21 23 25 27 29 31 34 37 39 40 39
41 44 45 45 42 37 35 36 36 35 35 35 35 35 35 37 37 36 33 31 31 33 35 34 32 32 31 31 30 29 29 30 30 27 25 25 27 29 29 27 25 23 23 23 22 20 18 17 17 17 18 20 22 24 27 29 31 33 35 38 41 42 42
44 46 47 47 45 41 39 38 36 34 34 35 36 37 40 41 42 41 40 38 36 36 36 36 35 34 34 33 32 32 32 32 31 29 26 27 29 31 30 28 26 25 24 23 22 20 18 17 17 18 19 22 24 26 28 30 33 34 36 39 42 45 45
44 46 46 46 45 43 40 39 38 37 37 38 38 40 44 45 45 45 45 44 41 39 39 39 38 37 37 36 34 34 33 33 33 31 29 28 31 32 30 29 27 25 25 23 21 20 18 17 18 19 21 23 25 27 30 33 35 36 38 41 44 48 48
48 47 47 47 46 45 44 43 42 42 42 43 44 45 47 47 47 48 49 48 46 43 42 43 43 40 38 38 36 35 35 35 35 34 31 29 31 32 30 29 27 26 25 23 21 20 18 18 19 21 23 25 27 30 33 35 36 38 40 43 47 50 49
51 50 50 50 49 47 47 47 47 46 46 48 50 51 50 49 49 51 51 48 46 44 43 44 44 41 40 40 38 36 36 37 37 36 33 30 30 31 30 29 28 27 25 24 22 20 19 20 21 22 24 26 29 33 35 36 38 40 41 43 45 46 42
54 53 52 52 51 48 47 48 49 49 50 52 53 53 53 51 50 50 50 47 46 45 43 43 42 41 41 41 40 39 38 38 38 37 35 32 30 30 30 30 29 27 26 24 22 21 21 21 22 24 26 28 31 34 35 37 38 39 39 41 41 40 38
57 57 56 55 54 52 50 51 52 52 53 54 54 53 53 52 50 49 49 48 48 47 46 43 42 42 43 44 44 42 39 39 39 39 37 35 32 30 31 31 30 28 27 26 25 23 23 23 25 26 28 30 33 33 34 37 38 37 39 42 41 39 39
53 58 60 60 58 57 55 55 56 56 56 56 55 53 53 54 54 53 51 50 50 50 49 46 44 44 46 47 47 46 43 41 40 40 39 37 35 33 33 32 31 30 30 29 27 25 25 27 28 28 30 32 33 33 35 37 38 39 41 43 42 41 41
45 51 56 60 62 62 61 59 60 59 58 57 56 55 55 56 57 56 55 55 55 52 50 50 49 49 50 50 50 49 47 44 42 42 42 41 39 37 36 34 32 31 32 32 30 29 30 30 30 30 32 34 34 35 37 39 40 41 43 43 44 45 45
44 45 48 52 56 59 60 60 61 62 62 62 61 60 59 59 59 58 57 58 57 55 54 55 55 54 53 53 53 52 50 47 45 44 44 45 44 41 38 36 34 34 35 35 34 33 34 33 33 33 34 36 37 37 39 41 42 43 44 45 46 47 48
45 46 47 48 49 50 50 51 51 54 59 64 68 68 67 65 64 62 61 60 59 58 58 58 59 59 57 56 56 54 52 48 46 45 45 47 47 45 42 40 38 37 38 38 36 37 36 35 35 36 36 38 39 40 41 43 44 45 45 46 47 49 50
47 47 48 50 51 50 49 48 47 47 49 55 62 68 72 73 72 70 68 66 64 64 63 62 63 63 61 58 57 57 54 50 48 47 47 48 50 49 46 43 42 41 41 40 39 38 37 37 38 38 38 40 41 43 44 45 46 48 48 48 49 50 51
50 51 51 52 53 53 52 51 50 49 48 49 53 58 64 70 73 75 75 74 72 70 69 68 68 67 64 61 61 62 59 54 51 51 50 50 52 53 50 47 46 45 44 42 41 40 39 39 40 40 40 42 44 45 46 47 48 49 49 48 49 50 51
51 53 55 56 56 56 55 54 54 53 51 50 50 51 54 59 63 67 71 74 75 75 75 75 74 73 71 68 66 67 66 60 55 55 55 52 54 56 54 50 49 48 46 45 43 42 41 42 42 42 43 44 45 46 47 49 50 50 48 47 47 47 45
49 51 53 55 57 58 58 58 58 58 56 55 53 51 51 52 55 58 61 63 67 71 75 78 79 76 76 75 71 71 73 67 59 58 58 55 56 59 57 53 50 49 48 47 45 44 44 44 44 44 44 44 46 48 49 51 50 47 47 47 46 42 38
49 49 50 52 54 56 58 59 59 60 60 59 56 55 55 56 58 60 61 61 61 63 68 76 78 73 71 73 74 75 76 71 63 60 60 59 60 62 59 54 52 50 50 49 47 46 46 46 45 45 45 46 48 50 51 52 49 46 46 47 43 38 36
50 50 50 50 51 52 54 54 55 56 57 57 56 57 59 62 62 62 63 65 65 63 63 69 74 71 66 66 68 71 73 70 65 64 65 63 63 62 58 54 52 52 51 50 48 47 47 47 46 46 47 48 50 51 51 50 47 45 46 44 39 37 36
49 49 50 50 50 51 51 52 52 52 53 53 54 56 57 58 59 60 62 64 65 66 66 68 71 71 67 63 62 62 64 66 67 66 63 60 60 59 55 52 52 52 50 48 48 48 48 47 47 47 48 51 53 52 49 45 43 44 44 41 38 38 37
48 49 48 49 50 50 50 50 50 50 50 50 51 52 52 52 52 54 57 60 61 61 64 67 68 67 63 58 56 57 58 60 61 60 55 54 56 54 51 51 52 51 49 48 48 48 48 47 47 48 51 54 53 48 43 41 42 42 41 39 39 38 35

ECMWFFLT1_500_spd_039.txt.gz
Wind_Speed
12 11 11 10 13 16 18 18 17 17 19 20 18 18 19 20 20 18 17 17 17 18 19 18 18 18 18 17 17 17 17 17 16 17 18 18 18 17 17 16 15 14 15 15 14 13 11 9 8 8 7 7 6 5 6 8 9 10 11 13 16 18 20
13 13 12 12 12 14 18 21 20 20 21 21 20 20 20 21 21 19 18 18 19 20 20 20 20 20 20 21 21 20 19 19 19 19 20 20 20 20 20 19 17 16 16 16 15 14 13 11 9 8 8 7 6 6 7 8 9 10 12 14 16 18 19
15 15 13 12 12 13 17 21 22 22 23 23 22 21 21 21 21 20 20 20 20 20 20 20 20 20 21 22 22 22 21 21 21 21 21 22 22 23 23 21 19 18 17 17 17 16 14 12 10 9 8 7 7 7 8 8 8 10 13 15 16 17 18
16 14 12 12 12 13 16 20 23 24 24 24 23 22 21 21 22 22 22 21 19 18 18 18 18 19 21 22 23 23 23 23 23 23 24 25 25 25 24 23 20 19 18 19 19 17 16 13 12 10 8 7 7 8 9 9 9 11 13 15 15 16 17
14 10 11 12 11 12 15 19 24 25 24 23 23 22 22 22 24 24 22 20 17 16 16 16 16 17 19 20 21 23 24 25 25 25 26 27 27 27 25 24 23 21 20 21 20 18 17 15 13 11 9 8 8 8 9 10 11 12 13 14 15 16 18
10 8 10 11 8 10 14 17 21 24 25 23 22 22 22 24 26 24 22 19 17 16 16 15 15 16 17 19 20 22 24 25 26 27 28 28 28 27 26 26 25 23 22 22 22 20 18 16 15 13 10 9 9 9 10 11 11 13 14 15 16 18 19
11 11 11 9 6 7 12 16 19 22 25 24 22 22 24 26 27 25 23 20 18 17 15 15 14 16 17 18 19 21 22 24 26 28 29 29 29 27 27 28 27 25 24 24 23 21 19 17 16 14 12 10 10 10 10 11 12 13 14 15 17 19 21
14 14 12 10 6 6 9 14 18 22 24 24 23 23 25 27 27 26 23 20 18 17 15 15 15 15 17 18 18 19 20 22 25 27 28 29 29 28 28 28 28 27 26 24 23 22 20 19 17 14 13 11 10 11 11 11 12 13 14 16 18 20 21
19 17 14 12 10 9 12 14 16 20 22 22 21 21 23 26 26 24 22 20 20 17 16 15 16 16 17 17 17 18 19 20 22 24 26 27 28 28 28 28 28 27 25 24 24 23 22 21 18 15 13 12 11 11 11 12 13 13 15 16 18 20 21
23 20 17 15 14 15 17 17 17 19 20 19 19 19 21 23 24 24 23 23 21 18 16 16 17 17 16 16 16 18 18 19 19 21 22 23 25 25 26 26 26 25 25 25 25 24 23 22 19 16 14 13 12 12 11 13 14 15 15 17 19 20 21
26 25 22 20 19 19 21 21 20 20 18 17 18 19 21 23 24 25 25 24 21 18 17 18 18 17 17 16 16 17 18 18 18 18 19 20 22 24 25 25 25 25 25 26 25 24 25 23 19 16 15 15 14 12 12 13 15 16 16 17 19 20 22
30 29 26 22 21 21 23 23 22 19 17 17 18 21 23 24 25 25 25 23 21 19 19 19 19 18 18 17 17 17 17 18 18 17 17 18 21 23 24 24 25 25 26 27 26 26 26 23 19 18 17 16 14 13 13 14 16 17 17 18 20 21 22
32 32 28 24 23 23 24 26 24 20 17 19 21 24 25 26 26 25 24 21 19 19 19 20 20 19 19 18 17 17 17 18 18 18 18 19 21 23 24 23 24 25 26 27 27 28 27 23 20 20 20 17 15 13 13 14 16 17 17 19 20 21 22
34 34 31 26 25 26 27 29 28 23 19 20 25 27 27 27 26 25 23 21 20 20 19 22 23 21 20 20 19 18 18 18 19 19 20 21 22 24 24 23 24 25 27 28 28 28 26 23 22 22 20 17 15 14 14 15 16 17 18 19 19 21 22
36 35 33 30 28 28 28 30 30 26 20 19 24 29 30 29 29 28 26 23 22 22 21 23 25 24 23 22 19 18 19 20 20 21 22 23 23 23 23 24 25 26 28 28 28 28 26 24 24 23 20 17 16 15 14 15 16 17 18 19 20 21 24
38 36 35 33 31 29 29 30 29 25 21 19 21 27 32 32 31 30 28 25 23 22 22 24 26 27 26 23 20 21 22 22 22 22 23 24 24 24 24 24 26 28 28 28 28 28 27 26 24 22 20 18 17 16 15 16 17 17 18 20 21 22 24
40 39 36 36 35 32 30 30 27 25 23 21 20 24 29 33 33 31 29 27 25 23 23 24 27 29 29 25 23 25 25 25 24 24 24 24 25 25 25 26 27 28 29 28 29 29 27 26 24 22 20 20 18 16 16 16 16 17 19 21 22 23 24
40 39 37 36 36 34 30 30 30 28 24 21 22 23 26 30 33 32 31 30 27 25 24 24 25 28 30 28 27 28 28 27 27 27 26 26 26 26 26 27 28 29 29 29 30 29 28 27 24 22 22 21 19 17 16 16 16 17 20 22 22 23 25
39 38 38 37 36 35 33 34 35 31 24 21 22 23 24 28 31 32 32 30 29 28 26 24 23 26 29 31 31 30 30 29 29 29 29 28 28 27 26 27 28 29 30 31 31 31 30 27 25 24 23 21 19 18 17 17 16 18 20 23 23 23 26
40 39 38 36 36 37 38 37 35 31 26 23 23 24 25 27 30 32 32 31 30 29 28 26 23 24 28 31 32 31 30 31 31 31 31 31 30 30 29 27 26 28 31 33 33 32 30 28 26 25 23 21 20 19 19 18 17 18 21 23 24 25 27
44 43 42 39 37 37 37 36 35 33 30 27 26 27 28 30 32 34 33 32 32 31 30 28 26 26 27 30 31 32 32 32 33 33 34 34 33 32 31 29 27 28 31 34 34 32 31 29 27 26 25 23 21 21 20 19 19 20 22 24 25 25 27
47 46 45 42 40 39 37 34 33 31 30 30 31 31 33 34 35 36 35 34 34 34 33 32 31 31 31 31 32 33 33 33 34 36 37 37 36 33 32 31 29 28 30 34 34 33 32 30 29 27 26 24 23 22 21 20 21 22 24 26 25 26 27
48 47 46 45 43 41 38 35 33 33 33 34 35 35 35 36 37 37 37 36 37 38 38 37 37 36 36 35 34 34 35 35 35 37 38 39 38 36 34 33 31 28 29 33 34 34 33 31 30 29 27 26 25 23 22 22 23 24 26 27 26 27 29
47 47 46 45 44 42 41 39 39 39 40 40 40 39 37 37 39 39 39 40 41 41 41 41 41 40 39 39 37 37 38 38 38 39 40 39 39 38 35 35 33 31 30 32 34 35 34 32 32 31 30 28 26 25 24 24 25 26 28 27 26 28 31
47 47 47 46 44 43 44 44 43 43 44 43 43 42 41 41 42 42 42 44 45 44 43 42 43 43 43 41 40 38 38 39 40 41 40 39 39 38 37 36 35 33 32 33 34 35 36 35 34 34 32 29 28 27 27 26 26 28 29 28 27 29 32
46 47 48 48 47 47 47 47 46 45 45 45 43 42 42 43 45 45 45 46 47 46 45 44 43 46 47 44 42 40 37 38 41 42 40 38 38 39 39 38 38 37 35 34 35 36 37 37 37 36 34 31 30 30 29 27 27 30 31 30 30 32 34
46 47 49 50 50 50 50 50 50 49 48 47 45 44 44 45 47 48 48 48 48 48 48 48 48 49 49 49 47 43 38 38 41 42 40 39 39 40 41 41 40 39 37 36 36 37 39 39 39 38 36 34 32 32 30 29 30 32 32 31 32 35 36
46 47 48 50 51 52 52 52 52 53 52 51 51 50 50 49 50 50 49 49 48 47 47 50 52 52 52 51 49 46 42 41 42 42 40 39 41 42 43 43 42 42 41 40 38 38 40 41 41 41 39 37 35 33 32 32 32 34 34 33 35 37 37
43 44 46 48 50 53 54 54 55 55 55 55 55 55 55 54 54 53 51 50 49 47 47 50 52 53 54 54 53 52 49 45 45 45 43 41 42 43 43 44 44 44 44 43 41 40 41 43 44 43 41 40 37 36 35 34 35 37 37 36 38 39 39
39 41 42 43 46 48 51 54 55 56 56 56 55 55 55 55 54 54 54 52 51 50 50 52 54 54 55 56 57 56 53 49 49 51 49 46 45 45 45 46 47 47 47 47 45 43 42 43 45 44 43 42 40 39 38 38 38 40 40 40 40 40 40
41 41 41 41 41 41 42 45 48 50 52 53 53 54 54 54 54 54 54 54 54 54 55 56 58 59 59 58 57 56 54 53 54 55 52 49 48 49 49 49 49 50 50 50 49 47 45 46 46 45 45 45 44 43 42 41 42 43 43 43 42 42 42
44 43 43 43 42 42 42 42 43 44 46 48 50 52 53 54 56 56 57 57 58 59 59 60 61 64 64 62 61 60 61 61 60 58 55 52 52 53 53 52 51 51 52 54 54 51 49 50 49 47 47 48 48 48 46 44 44 46 46 46 44 43 43
48 48 48 48 47 46 45 46 46 46 46 47 49 50 51 52 53 54 55 57 58 58 58 58 59 61 62 61 61 62 64 66 67 66 64 61 59 59 59 57 54 52 54 58 59 56 54 55 53 50 49 51 51 50 49 48 47 47 48 49 47 46 46
52 52 53 54 53 50 48 48 48 49 49 50 51 51 51 51 51 52 53 55 55 55 55 55 55 56 57 57 58 59 61 64 66 68 69 69 67 66 65 63 60 57 56 58 60 60 60 59 56 53 52 54 55 54 52 51 50 50 51 50 48 48 48
58 58 60 59 57 55 52 51 51 51 52 53 54 55 55 54 52 52 52 53 54 54 55 55 55 56 56 56 57 59 60 62 63 65 66 68 69 69 69 66 64 64 63 63 63 64 63 62 60 57 56 58 59 57 55 54 52 52 52 50 49 50 50
59 59 60 59 57 55 54 53 52 53 53 55 56 56 57 56 54 51 50 49 51 52 53 54 55 56 56 57 59 60 62 63 65 66 67 67 67 66 66 67 67 70 72 70 65 64 65 66 65 62 61 62 63 59 56 56 54 53 53 52 52 52 52
58 57 57 56 55 55 54 53 53 53 53 53 53 52 53 53 52 51 49 49 50 51 51 52 53 55 57 59 61 62 64 66 68 70 71 72 71 68 67 69 72 76 80 77 67 60 63 66 67 66 65 64 63 59 57 57 56 55 56 57 55 55 55
57 56 55 55 55 54 54 53 53 53 53 51 51 51 51 50 49 48 48 49 50 51 51 52 54 56 57 59 60 63 66 70 73 75 75 75 75 74 73 76 78 79 82 83 72 60 59 64 66 68 67 64 60 57 56 56 57 57 58 58 57 59 57

ECMWFFLT1_500_spd_042.txt.gz
Wind_Speed
23 21 19 17 14 12 11 12 14 14 15 15 15 16 17 17 17 16 15 15 14 15 15 14 15 15 16 16 16 17 16 16 16 16 18 19 18 17 17 16 16 15 15 15 14 13 12 11 11 10 10 11 9 8 7 5 5 5 6 8 10 12 13
23 22 20 19 17 13 11 12 14 15 16 17 18 19 19 18 17 16 16 16 16 17 16 16 16 17 17 18 19 19 19 19 18 18 18 19 19 18 18 17 16 16 16 16 15 14 13 13 13 12 11 11 10 9 8 6 5 5 6 8 11 12 13
22 20 19 18 15 13 11 11 14 16 17 18 20 21 20 19 18 17 18 18 18 18 18 17 17 18 19 20 20 21 21 21 20 19 19 20 20 20 20 19 18 17 17 17 16 15 14 15 14 14 13 12 11 10 8 6 5 5 7 9 10 11 13
21 20 19 18 16 15 15 15 16 17 18 19 20 21 21 20 19 20 20 20 19 19 17 17 18 19 20 20 20 21 22 23 22 22 21 21 22 22 22 21 20 19 18 18 17 16 16 16 16 15 14 13 13 11 9 7 6 6 7 8 10 11 12
22 22 22 21 20 19 18 18 18 17 18 20 21 22 22 22 22 22 23 21 19 19 18 18 18 18 17 17 17 18 20 22 23 23 23 23 24 24 23 22 22 21 20 20 19 18 18 17 17 17 16 15 14 13 10 8 7 6 7 8 9 10 12
22 24 23 20 19 19 18 18 17 16 18 20 22 23 23 24 24 24 24 22 20 19 18 17 16 15 15 15 15 16 17 19 21 23 24 24 25 25 24 24 25 24 22 22 20 19 19 19 19 18 18 17 16 14 12 9 8 7 7 8 9 10 12
19 21 22 19 17 17 17 17 17 17 17 20 23 25 25 26 26 25 26 24 21 20 18 16 16 15 15 15 16 16 16 17 19 21 23 25 26 25 25 26 27 26 25 23 22 21 20 20 20 19 19 18 18 16 13 11 9 8 8 8 9 10 11
18 18 20 20 17 16 15 15 17 16 16 19 23 25 26 26 26 26 26 24 22 20 17 16 16 16 16 17 16 15 16 17 18 19 22 23 25 26 27 28 28 28 27 24 23 22 21 22 21 20 19 19 19 17 15 13 11 9 8 8 9 9 11
22 21 23 21 19 18 16 14 14 14 14 17 21 24 25 25 26 26 25 24 22 19 17 17 17 18 18 17 16 16 16 16 16 17 19 20 22 25 27 29 29 30 28 25 24 23 22 23 22 21 20 20 20 18 16 14 13 11 9 9 9 10 11
25 24 25 23 22 20 18 16 16 16 15 15 18 22 23 24 25 25 25 24 23 19 17 18 19 19 19 18 17 16 15 14 14 15 15 17 19 22 25 28 29 29 28 26 25 24 23 23 23 21 20 20 20 19 17 16 15 13 11 10 10 10 11
27 27 27 26 25 23 21 20 20 19 16 14 15 18 21 22 23 23 23 23 21 19 18 19 20 20 19 18 17 15 14 13 13 13 13 14 16 18 21 24 26 27 27 26 25 25 24 24 23 22 21 21 21 21 19 18 16 14 12 11 10 10 11
29 30 30 29 27 26 23 21 21 21 20 17 15 15 18 21 22 21 20 19 19 20 20 21 21 20 19 18 17 14 13 13 13 12 12 12 13 15 18 20 23 24 25 25 25 25 25 24 24 23 21 22 23 22 21 19 17 16 14 12 11 11 11
32 33 32 30 29 28 25 23 23 24 23 20 18 17 17 18 19 19 17 17 18 20 21 22 21 20 19 18 17 15 14 14 13 13 13 13 13 15 16 18 20 21 23 24 24 24 24 25 25 24 23 24 24 23 22 20 18 17 15 14 13 12 12
32 34 32 30 30 30 28 26 26 26 25 23 22 20 17 17 17 16 16 16 18 21 22 21 20 19 18 18 17 16 15 16 15 14 14 14 15 16 16 17 18 19 21 23 23 23 23 25 26 25 25 25 25 24 22 20 19 18 17 16 15 14 13
32 35 34 32 31 31 31 30 29 28 27 25 24 21 17 15 16 16 17 17 19 21 21 21 20 19 19 19 18 17 17 18 18 17 16 16 16 16 17 17 18 19 20 21 21 22 23 24 26 26 26 25 25 24 23 21 19 19 19 18 17 16 15
32 35 35 32 31 32 32 31 30 29 27 26 25 22 18 16 16 18 19 19 20 20 20 21 20 19 20 19 18 18 20 21 20 20 19 19 18 18 18 18 18 19 20 21 21 21 23 24 26 25 25 25 25 24 23 21 20 20 21 20 19 18 17
30 33 33 31 31 32 33 31 29 28 29 28 26 23 21 18 17 19 21 22 22 22 22 22 21 20 19 18 18 21 23 23 23 22 21 21 21 21 22 21 20 19 20 21 22 22 23 24 25 25 25 25 26 26 24 22 20 21 23 22 21 21 19
30 31 30 30 31 33 33 32 30 30 30 27 24 24 24 21 19 20 23 23 23 23 24 24 22 20 19 17 19 23 24 25 25 24 23 23 23 24 24 24 23 22 21 21 22 23 24 24 25 26 26 26 27 27 25 22 22 23 24 23 23 22 21
30 31 30 30 31 32 33 33 32 32 31 27 26 27 27 24 22 21 21 23 25 26 26 26 24 22 20 20 21 24 25 26 27 26 25 25 25 26 27 27 25 24 24 22 22 23 24 25 27 28 28 27 27 28 26 24 23 24 25 24 24 25 25
32 33 33 31 31 32 32 32 32 32 31 29 30 32 30 28 26 23 21 23 26 28 29 30 28 26 24 23 23 24 25 27 27 27 27 27 28 29 29 28 27 26 26 25 25 24 24 25 28 29 29 28 27 29 28 26 26 26 26 26 26 27 29
33 35 36 34 32 33 33 32 30 30 31 31 34 36 33 30 30 28 26 26 26 27 29 30 30 29 28 27 26 25 25 26 27 27 28 29 30 30 30 30 29 28 28 27 27 26 24 25 27 29 30 29 28 30 29 28 28 28 27 27 28 30 33
33 35 37 36 34 34 35 34 30 29 31 34 37 37 34 32 30 28 27 27 27 28 28 29 31 31 30 29 28 26 25 25 26 27 28 29 30 31 30 31 31 31 30 29 28 28 26 26 27 28 29 29 29 30 30 30 30 29 29 29 30 34 36
34 35 38 39 37 36 37 38 35 31 31 34 36 36 36 35 32 30 29 30 30 30 28 28 30 30 30 30 30 29 26 25 26 28 29 30 31 31 31 32 33 34 34 33 31 29 29 28 27 27 28 29 30 31 31 32 31 31 31 31 32 36 36
36 36 39 42 41 39 40 41 39 37 35 34 34 35 36 36 35 34 33 31 29 28 26 27 29 31 31 31 31 31 30 30 32 32 32 33 34 34 34 34 35 37 38 37 34 32 31 30 29 29 29 28 29 31 33 34 33 33 34 34 35 37 36
37 37 39 42 44 44 43 43 43 42 40 38 37 37 37 38 38 36 33 30 29 29 28 28 30 32 33 33 34 35 35 35 36 36 36 36 37 37 38 38 39 41 41 41 39 36 35 34 32 31 30 29 29 32 35 36 36 36 36 36 37 37 36
38 39 40 42 44 45 46 46 44 44 44 43 41 39 37 37 37 35 33 32 32 31 30 30 31 33 35 37 39 39 38 38 38 37 38 39 39 40 41 41 41 43 44 44 42 40 38 37 36 34 33 32 32 33 36 38 39 38 38 38 39 38 37
38 39 40 42 44 45 45 45 43 42 42 42 41 39 36 35 34 34 35 35 35 33 32 32 34 37 39 41 41 40 40 41 41 40 41 42 43 43 43 42 42 45 46 44 42 43 43 41 40 39 37 36 35 35 37 40 41 40 40 40 40 40 37
38 38 40 42 44 46 45 43 41 41 41 41 40 40 39 37 36 36 36 37 37 35 34 35 37 38 40 41 41 41 42 43 43 42 42 44 46 47 45 42 43 47 48 44 41 42 45 45 44 43 41 40 39 37 38 41 42 42 42 43 43 41 38
38 38 40 42 44 47 48 45 43 42 42 42 42 42 42 42 41 40 39 39 39 39 39 40 40 40 42 43 43 43 44 44 44 43 43 45 47 47 46 45 46 48 49 48 48 47 47 49 49 47 45 44 42 40 40 43 44 43 44 46 45 43 40
38 38 39 41 43 46 48 49 48 46 45 45 46 45 45 46 46 46 45 44 44 45 45 44 44 44 45 45 45 44 44 45 46 46 46 47 48 48 48 49 51 51 49 49 49 48 47 50 53 52 49 47 46 44 43 45 46 46 48 48 47 45 42
39 39 39 40 43 44 46 48 49 49 50 50 49 49 49 49 50 50 50 49 49 50 49 49 49 49 49 48 48 47 46 46 47 48 49 50 50 51 50 50 51 52 50 48 48 49 48 50 54 56 54 49 47 47 47 47 49 50 51 51 50 47 45
42 41 40 41 41 42 44 45 47 49 50 50 50 50 50 50 51 51 52 51 51 51 50 51 51 50 50 50 49 48 48 48 49 51 52 53 53 53 52 52 53 55 54 54 55 55 52 50 52 57 58 54 51 51 50 50 52 54 54 54 53 51 49
44 42 42 42 41 41 41 42 44 45 46 47 48 48 49 49 50 49 49 48 47 46 47 47 47 48 48 49 49 49 50 51 51 53 54 56 56 56 55 56 57 58 59 60 60 58 56 54 53 53 55 55 53 53 53 53 54 55 56 56 56 54 52
44 43 43 43 43 42 41 41 41 42 42 42 42 43 44 46 46 46 46 45 44 44 45 45 46 47 48 49 50 51 52 53 53 54 55 56 57 57 57 57 57 57 58 59 60 59 59 59 56 53 53 54 55 56 57 57 57 57 57 57 58 57 55
44 44 43 43 43 43 43 44 44 43 43 42 42 42 43 44 45 46 46 47 47 47 47 47 48 49 49 50 50 51 52 53 54 55 55 56 58 59 59 59 59 58 58 58 59 61 62 63 61 57 55 56 58 59 61 61 61 60 59 60 61 59 58
45 44 44 44 44 43 44 45 45 45 45 44 44 45 46 47 48 49 50 50 51 50 50 50 50 50 51 50 50 51 52 53 53 55 56 57 59 60 62 63 63 63 62 61 61 61 63 65 65 63 63 62 62 63 65 65 64 63 63 64 64 64 64
49 48 48 48 47 47 46 46 46 46 46 46 46 47 48 50 51 52 53 53 53 53 52 51 51 51 50 49 49 49 50 52 54 55 56 58 60 62 65 66 67 66 67 66 65 64 64 65 66 68 69 68 67 68 71 71 71 70 70 70 69 70 69
53 53 53 52 52 52 51 50 50 50 50 50 50 50 51 53 54 55 56 55 54 54 53 52 51 51 50 49 49 49 49 52 54 55 56 58 60 63 66 68 69 70 70 70 70 70 69 68 68 69 70 70 70 71 72 73 72 71 71 71 73 73 69

ECMWFFLT1_500_spd_045.txt.gz
Wind_Speed
26 24 23 22 21 21 20 19 17 16 16 16 16 18 19 18 17 15 15 15 15 16 16 17 16 16 15 15 16 17 17 17 16 15 16 16 17 18 18 16 16 16 16 16 16 14 13 11 10 9 9 10 11 12 13 12 11 11 9 7 5 4 4
28 26 24 22 21 21 21 21 21 19 18 17 17 18 18 18 17 16 15 15 15 16 16 16 16 16 17 17 18 18 18 17 17 16 16 16 17 18 19 18 17 17 17 17 16 15 13 12 12 11 10 11 11 12 14 13 12 12 10 8 6 5 4
28 26 24 23 22 21 21 21 21 21 20 19 19 19 18 17 17 17 17 17 17 17 17 16 16 17 18 19 19 19 19 19 18 17 16 16 17 18 19 19 18 18 18 17 16 15 14 13 13 13 12 11 12 12 14 14 13 13 12 10 8 6 5
28 26 25 23 21 19 19 20 21 22 22 21 21 21 19 19 19 18 18 18 18 19 18 17 18 19 19 20 20 21 21 21 20 19 19 18 19 19 19 19 19 19 19 19 18 16 15 15 14 14 13 12 12 13 14 15 15 14 13 11 9 7 6
29 27 24 21 18 17 17 17 18 19 21 21 21 22 21 21 22 21 21 20 20 20 19 19 19 19 19 19 20 21 22 23 23 22 21 21 21 20 19 19 20 20 20 20 19 18 17 16 16 15 15 14 13 14 14 15 16 16 14 12 10 8 7
30 27 25 21 19 18 16 15 15 16 18 19 20 21 22 23 23 22 22 22 21 21 20 20 19 18 18 18 18 20 21 21 22 22 23 23 23 22 21 21 21 21 22 22 21 20 19 18 17 16 16 16 15 14 15 15 17 17 15 13 11 9 8
31 29 26 24 23 22 19 17 15 16 18 19 20 21 23 25 26 25 25 24 23 22 21 20 18 17 17 18 18 19 19 19 19 20 21 22 23 23 23 23 23 23 23 23 22 21 20 19 19 18 18 17 17 16 16 16 17 18 16 15 12 10 9
31 30 27 25 26 26 24 21 19 19 21 22 23 23 24 26 27 28 27 25 24 23 21 20 18 17 17 18 18 18 18 18 19 19 19 20 22 23 24 25 25 25 25 24 23 23 22 21 20 19 19 19 18 18 17 17 18 19 17 15 13 11 9
31 31 29 29 30 30 28 25 24 23 24 25 26 26 26 27 28 29 28 26 25 24 22 20 19 18 19 19 18 17 17 17 17 17 17 17 19 21 23 25 27 27 26 25 25 24 23 23 22 21 21 20 20 20 19 18 18 19 18 17 15 12 10
31 31 30 29 30 31 30 28 26 24 24 26 27 28 28 28 28 29 29 28 26 24 22 21 20 20 20 19 18 17 16 15 15 15 15 15 16 18 21 23 26 27 27 26 26 25 24 24 24 23 22 21 21 21 20 19 19 20 20 18 16 14 11
31 31 29 28 29 30 31 31 28 25 24 25 27 26 26 27 28 28 29 28 25 23 23 22 21 20 20 19 18 17 15 14 13 12 12 13 14 16 18 20 22 24 25 26 26 25 25 25 25 24 23 22 22 22 22 22 21 22 21 19 17 15 13
32 32 31 30 31 33 34 32 29 26 23 24 27 24 22 23 25 26 27 26 24 23 23 23 21 20 20 20 18 16 15 13 12 11 11 10 11 12 14 15 17 18 20 21 22 22 23 23 24 23 23 23 23 24 24 24 23 23 22 21 18 16 14
34 35 35 34 34 35 36 34 32 29 25 24 27 25 20 20 22 24 25 24 23 23 24 24 22 21 20 20 18 16 15 13 12 11 11 10 9 8 8 9 10 12 13 14 14 14 15 17 19 20 21 23 24 25 25 25 24 23 23 22 20 18 16
33 36 37 36 36 35 36 36 34 32 27 25 28 28 24 20 20 21 23 22 22 24 24 24 22 21 20 20 18 16 15 14 14 13 12 11 9 7 5 5 6 7 8 9 11 11 12 13 14 16 17 20 22 24 26 25 24 24 24 23 22 20 18
33 35 36 37 37 37 36 35 34 33 30 26 27 29 27 24 21 20 21 21 22 24 24 23 23 21 21 20 17 15 15 16 16 14 13 12 10 8 7 6 6 7 7 8 9 10 11 12 13 13 13 16 20 23 25 24 23 23 24 24 24 22 21
30 32 34 35 36 36 36 35 34 33 32 29 27 27 27 25 23 22 21 21 23 23 23 23 22 20 19 17 14 14 16 18 17 16 15 13 12 12 10 9 9 9 8 8 9 9 10 11 12 13 13 14 16 19 21 21 22 24 25 25 26 25 23
26 28 30 31 33 34 34 34 34 34 33 31 28 27 27 25 23 24 23 23 23 23 23 23 21 19 17 15 14 16 18 19 18 17 16 15 15 15 13 13 13 12 11 10 10 11 10 10 9 11 13 15 16 17 18 18 20 24 26 27 28 28 26
25 26 26 28 30 31 32 32 33 33 33 32 30 29 28 26 23 23 24 23 22 22 23 23 21 19 17 16 17 19 19 19 19 18 17 17 17 18 17 17 17 16 14 13 14 14 12 10 10 11 12 14 16 16 17 18 20 23 26 28 30 30 28
27 26 26 26 27 29 30 31 32 32 31 31 31 30 29 26 23 21 22 22 21 21 21 20 19 18 18 18 19 20 19 20 20 19 19 19 20 21 22 21 20 20 19 18 18 17 14 13 14 14 13 13 14 16 18 19 21 23 26 29 31 31 30
29 28 28 27 27 28 29 30 32 32 31 30 31 30 29 27 23 22 22 22 22 22 22 21 21 21 21 21 22 22 22 22 22 21 21 21 23 24 25 24 23 23 23 23 22 20 18 18 18 17 16 15 15 16 18 19 22 24 26 29 31 33 33
32 31 30 29 28 27 28 29 31 32 32 31 31 31 30 27 25 26 27 26 24 24 24 24 25 25 25 25 25 25 25 24 23 24 23 23 24 25 26 27 26 26 26 27 26 25 23 23 22 21 20 18 17 18 17 18 21 24 26 29 32 34 35
34 33 32 31 29 28 28 29 31 31 33 34 34 33 31 29 28 30 31 28 27 27 26 26 27 28 28 29 29 28 27 27 28 27 26 25 26 26 27 28 28 28 28 29 30 30 28 27 26 26 25 23 22 21 19 19 21 24 27 30 33 36 37
36 35 33 32 31 29 29 30 31 31 32 33 34 33 33 31 31 33 33 31 30 30 29 29 29 29 28 28 28 30 32 33 33 30 28 28 29 28 28 29 29 30 30 30 32 33 33 33 31 31 30 29 28 26 23 23 24 26 29 32 35 37 38
37 36 35 34 32 31 31 31 31 31 32 32 31 31 32 32 33 35 36 34 31 30 30 30 29 28 26 24 26 32 37 39 38 33 30 30 31 30 30 30 30 32 33 34 35 35 35 36 35 34 35 35 34 32 30 28 27 28 30 33 36 38 38
38 37 36 35 33 32 32 32 32 32 33 34 32 30 30 31 32 35 37 35 34 31 29 28 28 29 28 26 27 33 37 39 40 37 33 33 33 31 31 33 33 35 36 36 36 36 37 38 39 39 39 39 38 38 36 34 33 32 31 34 37 39 40
37 37 36 36 34 34 34 34 34 34 34 35 35 33 32 31 31 33 36 36 35 33 31 32 33 33 31 29 30 32 34 37 39 38 36 35 35 34 35 35 35 37 37 37 37 37 39 39 39 40 40 40 41 41 40 38 37 36 34 35 38 41 42
36 36 36 36 36 35 36 36 36 35 36 37 37 37 36 34 33 33 35 36 35 34 34 35 36 35 33 33 33 32 34 36 36 36 35 34 34 34 35 34 34 36 37 37 38 39 40 41 40 39 37 36 36 37 37 39 41 41 40 40 41 42 43
38 37 37 37 37 37 37 37 37 37 37 38 39 39 39 38 38 37 37 37 37 37 37 38 39 39 38 37 34 32 33 33 32 31 32 32 32 33 33 34 35 37 37 38 39 40 41 41 41 40 37 34 33 34 35 37 41 43 44 43 44 44 44
39 38 38 38 39 39 39 38 38 38 39 39 40 40 40 41 42 41 41 41 41 41 40 40 41 41 39 36 34 32 32 32 32 32 32 33 34 35 36 37 39 41 41 41 42 42 43 42 42 43 42 39 37 36 37 39 43 46 47 46 46 48 48
41 40 39 38 39 40 40 40 40 40 41 41 41 41 42 42 43 44 43 43 42 41 40 39 39 38 37 35 35 34 34 34 35 36 36 37 38 38 39 41 43 44 45 46 46 46 46 45 45 45 46 45 43 40 38 39 44 48 50 50 50 50 51
42 41 40 38 38 38 40 41 41 41 42 42 42 42 43 43 44 44 43 42 41 39 39 39 39 39 39 39 38 38 37 37 37 39 40 41 42 42 43 44 44 47 49 49 50 50 49 48 48 48 49 50 49 46 42 41 44 47 48 50 53 54 54
42 41 40 39 38 37 39 39 39 40 42 44 44 44 44 44 45 45 44 43 43 42 42 42 42 42 42 42 42 42 41 41 41 42 43 44 46 47 47 47 47 49 50 51 52 51 51 51 52 52 52 52 52 50 47 45 46 47 45 47 50 55 58
42 41 40 39 38 38 39 39 39 39 40 42 45 46 47 47 46 46 46 46 45 45 45 45 46 46 46 46 47 47 47 47 46 46 46 47 48 49 50 50 50 50 51 52 53 53 52 53 54 54 54 53 52 53 53 52 50 49 48 49 51 54 57
43 42 42 41 41 40 40 41 40 39 38 39 42 44 47 49 49 49 49 49 48 48 49 49 50 51 51 50 50 49 48 47 47 47 47 48 48 49 50 51 52 52 53 54 54 55 55 56 57 57 56 55 54 56 58 58 54 50 49 50 52 55 58
45 44 44 44 44 43 42 42 42 41 40 40 41 42 43 45 47 49 50 51 51 51 51 52 51 51 50 49 47 46 45 45 45 46 47 48 49 50 52 53 54 56 56 56 57 58 58 60 60 59 57 58 58 58 60 61 58 54 53 53 56 60 63
46 46 46 46 46 45 44 43 43 43 43 43 43 42 42 42 43 45 46 47 48 49 50 50 49 48 46 46 45 45 45 46 47 48 49 51 52 53 54 56 57 58 59 59 60 60 61 62 63 62 61 62 62 61 61 61 60 59 60 60 61 62 63
48 48 48 48 47 46 45 44 43 42 43 43 43 43 44 44 43 43 44 44 45 46 47 48 48 47 47 47 47 47 48 49 50 51 52 53 54 54 55 55 56 58 59 59 60 60 62 64 65 64 65 66 66 64 63 64 64 66 67 65 64 65 66
49 49 49 49 48 47 45 44 43 43 42 43 43 43 44 45 45 45 45 46 46 47 48 48 48 49 49 49 50 51 51 51 52 52 52 53 53 54 54 54 55 56 58 59 60 61 63 64 66 66 67 68 68 67 65 66 68 69 69 67 66 69 72

ECMWFFLT1_500_spd_048.txt.gz
Wind_Speed
29 27 24 24 23 23 22 22 22 23 23 24 23 23 24 24 24 23 23 23 23 23 23 23 23 22 22 22 22 22 21 20 19 18 17 17 17 18 19 19 18 18 18 18 18 17 16 14 13 12 10 8 7 7 9 10 11 11 11 12 11 10 8
30 28 25 25 24 23 23 23 24 25 25 26 26 25 24 23 22 23 23 23 23 23 23 23 23 23 23 23 23 22 21 21 20 19 18 17 17 18 19 19 19 18 19 19 18 18 16 14 14 14 12 10 9 9 9 10 11 12 12 12 12 11 9
31 29 27 25 24 24 23 23 23 24 26 27 27 26 24 22 22 23 24 24 23 23 22 22 22 22 22 22 22 21 21 20 19 19 19 18 18 19 19 19 19 19 19 19 19 18 16 15 15 14 14 12 11 11 11 11 11 12 13 13 13 12 11
32 30 28 26 25 24 24 24 24 24 24 25 26 26 25 24 23 23 23 23 23 22 21 21 22 22 22 21 21 20 20 19 19 19 19 19 19 19 18 19 19 19 19 19 20 19 17 16 15 15 14 14 13 12 12 12 12 12 13 14 14 13 12
33 31 30 28 25 25 25 24 23 22 22 22 23 24 25 25 25 24 23 23 23 23 23 23 23 22 22 21 21 20 20 20 20 20 19 19 19 19 18 18 19 19 19 20 20 19 18 17 16 16 15 15 14 14 14 14 14 13 13 14 14 14 13
34 33 32 28 26 25 24 21 19 19 19 20 21 22 24 26 26 26 25 24 24 24 24 24 23 22 21 21 21 21 21 20 20 20 20 20 20 19 19 19 20 19 20 20 20 20 19 18 17 17 16 16 15 15 16 16 15 15 14 15 15 15 14
37 35 32 28 27 26 22 19 17 17 19 21 22 22 24 26 26 26 26 26 25 25 24 24 23 22 21 21 21 20 20 20 20 20 20 20 20 20 20 21 21 21 21 21 20 20 20 19 18 18 17 17 16 16 17 18 18 17 16 16 16 16 15
38 36 33 30 29 27 24 22 20 19 20 22 24 23 23 25 26 26 26 26 27 27 26 25 24 22 21 21 20 20 20 20 20 20 20 20 20 20 21 22 22 23 23 23 22 21 21 20 20 19 19 18 17 18 18 19 20 19 18 17 17 17 16
39 37 35 33 31 28 26 25 24 23 22 22 23 24 25 25 26 26 26 27 28 28 27 26 25 23 22 21 20 20 20 20 19 18 18 18 19 19 20 22 23 24 24 24 24 24 22 22 21 21 21 20 19 19 20 20 21 21 20 18 18 18 17
40 39 37 36 34 31 30 30 28 27 25 23 23 26 26 25 24 25 26 28 29 27 27 27 27 25 23 21 21 21 21 19 18 17 16 16 17 18 20 21 22 23 24 24 24 24 24 24 23 23 22 22 21 21 22 22 22 23 22 21 20 19 19
41 40 39 38 37 35 35 34 32 29 28 25 25 27 27 25 23 24 25 27 27 28 28 29 28 26 24 22 22 22 20 19 17 16 15 16 16 17 18 19 20 21 22 22 22 23 24 25 24 24 23 23 24 23 23 24 24 24 23 23 22 21 20
42 41 40 39 40 40 38 36 34 33 31 29 28 29 28 26 25 24 24 25 26 27 29 30 29 26 24 24 23 21 20 18 17 15 15 16 15 15 15 15 16 17 18 19 19 20 22 23 24 24 24 25 26 26 25 25 26 26 25 25 24 23 21
43 42 41 40 42 43 41 39 37 36 35 33 31 29 27 27 27 25 24 24 25 27 29 30 29 27 25 24 23 21 19 18 17 16 16 15 14 12 11 10 11 12 13 14 15 15 17 18 19 20 22 24 25 25 25 26 27 27 27 27 26 24 23
45 43 42 42 44 45 44 42 40 39 37 36 33 31 28 27 27 25 24 24 25 26 28 29 30 28 25 25 23 21 19 19 19 18 17 15 14 11 9 7 7 7 8 8 9 10 12 13 14 15 17 19 20 21 22 24 25 26 27 27 26 25 24
46 46 46 46 46 46 46 44 42 40 39 37 36 33 30 28 27 25 24 24 24 24 26 28 28 27 26 25 23 21 20 21 21 19 18 16 14 12 10 8 7 6 5 5 5 5 7 8 10 12 13 14 15 16 18 19 21 23 25 27 26 26 26
46 48 48 48 48 47 47 45 43 42 41 39 38 35 32 29 26 25 25 25 23 22 23 25 26 26 25 24 22 22 23 23 22 20 19 17 15 14 13 11 9 8 6 5 5 4 4 5 6 9 11 12 14 15 15 16 17 20 24 26 27 26 27
44 46 47 48 48 48 47 45 42 41 41 41 40 38 35 31 26 25 26 27 25 23 23 24 24 25 24 23 23 24 24 23 22 20 19 17 17 17 16 14 13 11 9 8 7 6 6 5 5 6 8 10 13 15 16 16 15 17 21 24 26 27 28
38 40 42 44 46 46 45 43 42 41 40 41 42 41 39 35 29 26 25 25 24 24 24 24 23 24 23 23 24 25 24 23 22 21 19 18 17 18 18 17 16 14 13 11 10 9 9 8 7 7 7 8 10 12 15 17 17 18 20 22 24 26 27
32 34 36 38 40 42 43 42 41 41 41 41 42 42 41 38 33 28 25 25 24 24 24 23 23 23 24 24 25 25 24 23 22 21 19 18 19 19 20 20 19 17 16 15 14 14 12 10 10 10 10 9 10 11 13 15 17 20 22 23 24 25 27
28 30 31 32 34 36 38 39 39 39 40 41 41 42 42 39 34 29 27 26 25 23 23 22 22 23 24 25 26 25 24 24 23 21 20 21 21 22 21 21 20 19 19 18 18 18 16 14 14 14 13 13 13 13 14 14 15 18 22 25 26 27 28
28 28 29 29 29 30 31 32 33 34 36 38 39 40 40 39 35 32 29 27 26 24 23 22 22 23 24 25 26 25 24 24 23 23 22 22 23 23 22 23 23 22 22 21 21 21 21 21 20 18 17 17 17 17 17 17 17 18 21 24 26 29 31
31 30 30 29 28 27 26 26 27 29 32 34 35 37 38 37 35 32 30 28 27 25 24 22 21 22 23 24 24 23 23 23 23 24 24 24 24 24 24 25 25 25 25 24 24 25 26 27 26 23 22 23 23 23 22 22 22 22 23 25 27 29 31
34 32 31 30 29 28 26 25 25 26 28 30 32 33 35 35 33 31 29 28 26 25 25 24 22 21 21 22 23 22 22 23 24 26 27 27 27 26 26 26 25 25 26 27 27 28 29 29 30 30 30 29 29 29 28 27 27 27 28 29 31 32 32
36 35 34 33 32 30 28 26 25 26 27 29 30 31 32 33 32 30 28 28 27 27 27 27 25 23 22 22 23 23 23 25 27 29 29 29 29 29 29 28 28 28 30 31 30 30 31 31 30 31 32 33 34 33 32 32 32 32 33 34 35 36 36
38 38 37 36 34 33 31 29 28 27 27 29 30 30 31 33 33 32 30 30 29 29 28 28 28 27 25 24 23 24 25 27 27 28 28 28 29 32 34 34 33 33 34 34 33 33 33 32 31 30 32 34 35 35 34 34 34 35 35 37 39 40 41
39 39 39 38 36 34 33 32 31 30 29 29 31 31 32 34 35 35 35 34 32 30 29 30 31 31 29 27 25 25 27 27 27 26 26 27 30 34 37 37 37 39 40 39 37 36 35 34 32 31 32 34 35 36 37 36 36 36 35 36 40 43 45
39 39 39 39 38 36 35 34 33 32 31 31 32 32 33 35 36 36 37 38 36 33 32 33 34 33 32 29 28 28 28 29 29 29 28 29 31 35 36 35 35 38 40 40 38 37 37 36 34 34 33 34 36 37 37 37 37 37 35 34 35 38 42
38 38 39 39 39 38 36 35 35 35 34 34 34 34 34 36 36 35 36 38 39 37 35 35 35 33 32 31 31 31 31 32 33 33 32 32 34 36 35 33 32 33 34 35 34 34 34 35 35 35 35 35 36 38 38 37 37 38 36 34 33 34 37
38 38 38 39 39 38 37 36 35 35 35 35 35 35 35 35 36 36 35 37 38 38 35 33 32 32 32 33 34 33 33 34 35 36 36 37 38 38 36 33 32 31 32 32 33 34 35 36 36 37 38 38 39 40 40 40 40 40 39 37 36 36 37
39 39 39 39 39 38 37 36 35 36 36 36 36 36 35 35 36 37 36 36 37 38 35 33 33 33 34 35 36 36 36 36 37 38 39 41 41 40 37 35 34 34 34 35 36 38 39 39 40 41 41 42 43 43 44 44 45 44 43 41 40 41 40
40 40 40 40 40 39 39 37 36 36 36 36 36 36 36 36 36 37 38 38 38 38 38 36 36 37 38 38 39 39 39 40 40 41 43 44 43 40 38 38 38 38 38 38 40 41 42 42 43 45 46 47 47 48 48 50 50 49 47 45 45 46 45
40 40 40 40 41 41 40 39 38 37 36 37 36 36 37 37 38 38 38 39 40 40 40 40 40 41 42 42 43 43 44 44 44 45 45 45 43 40 39 40 41 41 41 42 43 44 45 46 47 49 50 51 52 52 53 54 54 52 51 49 49 48 48
39 40 40 40 41 41 41 41 40 39 38 38 37 38 38 39 40 40 40 40 41 41 42 42 43 44 45 46 47 47 48 47 46 45 44 43 42 42 42 43 44 45 46 46 46 48 49 50 52 54 54 55 55 56 57 58 58 56 54 53 52 50 50
38 39 39 40 41 41 41 41 41 40 39 39 38 39 39 39 40 41 42 42 42 42 43 43 44 44 45 46 47 47 46 45 44 43 43 44 45 46 46 47 47 48 48 49 49 51 52 53 55 56 57 58 58 58 59 60 59 59 58 57 54 53 54
39 39 39 39 40 40 41 41 41 41 41 40 39 39 39 39 39 40 42 43 44 44 44 44 44 45 45 46 45 45 45 45 45 45 46 47 49 50 50 50 50 49 49 50 51 52 53 54 55 57 57 58 60 61 62 62 61 60 62 62 60 58 59
40 40 40 40 39 40 40 41 41 41 41 40 39 38 38 38 37 38 39 42 43 44 45 45 46 47 47 47 47 47 48 48 48 49 51 52 53 54 53 53 52 52 51 51 51 53 55 56 56 58 59 60 62 63 65 66 65 63 64 66 64 63 64
42 41 41 41 40 39 40 40 40 41 41 40 39 38 38 38 38 37 38 38 40 41 43 45 47 49 50 51 52 52 53 53 53 54 54 55 55 55 54 54 54 54 54 54 55 56 57 58 58 59 61 62 64 65 66 67 67 66 65 66 66 66 66
43 42 41 41 41 41 41 40 41 41 41 41 41 40 40 39 39 39 39 39 40 41 42 44 45 46 48 49 50 51 52 52 53 53 53 53 53 53 53 54 54 55 56 57 58 58 59 60 61 61 62 64 65 66 66 67 68 68 67 66 67 68 67